Time,TemperatureF,DewpointF,PressureIn,WindDirection,WindDirectionDegrees,WindSpeedMPH,WindSpeedGustMPH,Humidity,HourlyPrecipIn,Conditions,Clouds,dailyrainin,SoftwareType,DateUTC
2013-07-28 00:00:00,58.5,51.0,29.83,West,259,0.0,0.0,76,0.00,,---,0.00,VWS V14.00,2013-07-28 04:00:00,
2013-07-28 00:01:00,58.5,51.0,29.83,West,259,0.0,0.0,76,0.00,,---,0.00,VWS V14.00,2013-07-28 04:01:00,
2013-07-28 00:02:00,58.5,51.0,29.83,West,259,0.0,0.0,76,0.00,,---,0.00,VWS V14.00,2013-07-28 04:02:00,
2013-07-28 00:03:00,58.5,51.0,29.83,West,259,0.0,0.0,76,0.00,,---,0.00,VWS V14.00,2013-07-28 04:03:00,
2013-07-28 00:05:00,58.5,51.0,29.83,West,259,0.0,0.0,76,0.00,,---,0.00,VWS V14.00,2013-07-28 04:05:00,
2013-07-28 00:06:00,58.5,51.0,29.83,West,259,0.0,0.0,76,0.00,,---,0.00,VWS V14.00,2013-07-28 04:06:00,
2013-07-28 00:08:00,58.5,51.0,29.83,WSW,258,0.0,0.0,76,0.00,,---,0.00,VWS V14.00,2013-07-28 04:08:00,
2013-07-28 00:10:00,58.4,50.9,29.83,West,259,0.0,0.0,76,0.00,,---,0.00,VWS V14.00,2013-07-28 04:10:00,
2013-07-28 00:11:00,58.4,50.9,29.83,West,259,0.0,0.0,76,0.00,,---,0.00,VWS V14.00,2013-07-28 04:11:00,
2013-07-28 00:13:00,58.4,50.9,29.82,West,259,0.0,0.0,76,0.00,,---,0.00,VWS V14.00,2013-07-28 04:13:00,
2013-07-28 00:16:00,58.4,50.9,29.83,West,259,0.0,0.0,76,0.00,,---,0.00,VWS V14.00,2013-07-28 04:16:00,
2013-07-28 00:17:00,58.4,50.9,29.82,West,259,0.0,0.0,76,0.00,,---,0.00,VWS V14.00,2013-07-28 04:17:00,
2013-07-28 00:19:00,58.4,51.2,29.82,West,259,0.0,0.0,77,0.00,,---,0.00,VWS V14.00,2013-07-28 04:19:00,
2013-07-28 00:21:00,58.4,51.2,29.83,West,259,0.0,0.0,77,0.00,,---,0.00,VWS V14.00,2013-07-28 04:21:00,
2013-07-28 00:22:00,58.4,51.2,29.82,West,259,0.0,0.0,77,0.00,,---,0.00,VWS V14.00,2013-07-28 04:22:00,
2013-07-28 00:24:00,58.4,51.2,29.83,WSW,256,0.0,0.0,77,0.00,,---,0.00,VWS V14.00,2013-07-28 04:24:00,
2013-07-28 00:26:00,58.4,51.2,29.83,WSW,257,0.0,0.0,77,0.00,,---,0.00,VWS V14.00,2013-07-28 04:26:00,
2013-07-28 00:27:00,58.3,51.1,29.83,WSW,257,0.0,0.0,77,0.00,,---,0.00,VWS V14.00,2013-07-28 04:27:00,
2013-07-28 00:28:00,58.3,51.1,29.83,WSW,257,0.0,0.0,77,0.00,,---,0.00,VWS V14.00,2013-07-28 04:28:00,
2013-07-28 00:29:00,58.3,51.1,29.83,WSW,257,0.0,0.0,77,0.00,,---,0.00,VWS V14.00,2013-07-28 04:29:00,
2013-07-28 00:30:00,58.3,51.1,29.83,WSW,256,0.0,0.0,77,0.00,,---,0.00,VWS V14.00,2013-07-28 04:30:00,
2013-07-28 00:32:00,58.3,51.5,29.83,WSW,250,0.0,0.0,78,0.00,,---,0.00,VWS V14.00,2013-07-28 04:32:00,
2013-07-28 00:34:00,58.3,51.5,29.82,WSW,250,0.0,0.0,78,0.00,,---,0.00,VWS V14.00,2013-07-28 04:34:00,
2013-07-28 00:35:00,58.3,51.5,29.82,WSW,250,0.0,0.0,78,0.00,,---,0.00,VWS V14.00,2013-07-28 04:35:00,
2013-07-28 00:38:00,58.3,51.5,29.82,WSW,250,0.0,0.0,78,0.00,,---,0.00,VWS V14.00,2013-07-28 04:38:00,
2013-07-28 00:40:00,58.2,51.4,29.82,WSW,252,0.0,0.0,78,0.00,,---,0.00,VWS V14.00,2013-07-28 04:40:00,
2013-07-28 00:41:00,58.2,51.4,29.82,WSW,252,0.0,0.0,78,0.00,,---,0.00,VWS V14.00,2013-07-28 04:41:00,
2013-07-28 00:43:00,58.1,51.3,29.82,WSW,252,0.0,0.0,78,0.00,,---,0.00,VWS V14.00,2013-07-28 04:43:00,
2013-07-28 00:44:00,58.1,51.6,29.81,WSW,252,0.0,0.0,79,0.00,,---,0.00,VWS V14.00,2013-07-28 04:44:00,
2013-07-28 00:46:00,58.1,51.6,29.81,WSW,252,0.0,0.0,79,0.00,,---,0.00,VWS V14.00,2013-07-28 04:46:00,
2013-07-28 00:47:00,58.0,51.5,29.81,WSW,252,0.0,0.0,79,0.00,,---,0.00,VWS V14.00,2013-07-28 04:47:00,
2013-07-28 00:48:00,58.0,51.5,29.81,WSW,252,0.0,0.0,79,0.00,,---,0.00,VWS V14.00,2013-07-28 04:48:00,
2013-07-28 00:50:00,58.0,51.5,29.81,WSW,252,0.0,0.0,79,0.00,,---,0.00,VWS V14.00,2013-07-28 04:50:00,
2013-07-28 00:51:00,58.0,51.5,29.81,WSW,252,0.0,0.0,79,0.00,,---,0.00,VWS V14.00,2013-07-28 04:51:00,
2013-07-28 00:55:00,58.0,51.5,29.81,WSW,248,0.0,0.0,79,0.00,,---,0.00,VWS V14.00,2013-07-28 04:55:00,
2013-07-28 00:57:00,57.9,51.8,29.81,WSW,248,0.0,0.0,80,0.00,,---,0.00,VWS V14.00,2013-07-28 04:57:00,
2013-07-28 01:00:00,57.8,51.7,29.81,WSW,248,0.0,0.0,80,0.00,,---,0.00,VWS V14.00,2013-07-28 05:00:00,
2013-07-28 01:01:00,57.7,51.6,29.81,WSW,248,0.0,0.0,80,0.00,,---,0.00,VWS V14.00,2013-07-28 05:01:00,
2013-07-28 01:02:00,57.7,51.6,29.81,WSW,248,0.0,0.0,80,0.00,,---,0.00,VWS V14.00,2013-07-28 05:02:00,
2013-07-28 01:03:00,57.6,51.5,29.81,WSW,248,0.0,0.0,80,0.00,,---,0.00,VWS V14.00,2013-07-28 05:03:00,
2013-07-28 01:06:00,57.5,51.4,29.81,WSW,249,0.0,0.0,80,0.00,,---,0.00,VWS V14.00,2013-07-28 05:06:00,
2013-07-28 01:07:00,57.5,51.4,29.81,WSW,249,0.0,0.0,80,0.00,,---,0.00,VWS V14.00,2013-07-28 05:07:00,
2013-07-28 01:08:00,57.4,51.6,29.81,WSW,249,0.0,0.0,81,0.00,,---,0.00,VWS V14.00,2013-07-28 05:08:00,
2013-07-28 01:09:00,57.4,51.6,29.81,WSW,249,0.0,0.0,81,0.00,,---,0.00,VWS V14.00,2013-07-28 05:09:00,
2013-07-28 01:12:00,57.3,51.5,29.81,WSW,248,0.0,0.0,81,0.00,,---,0.00,VWS V14.00,2013-07-28 05:12:00,
2013-07-28 01:13:00,57.2,51.4,29.81,WSW,246,0.0,0.0,81,0.00,,---,0.00,VWS V14.00,2013-07-28 05:13:00,
2013-07-28 01:14:00,57.2,51.4,29.81,WSW,243,0.0,0.0,81,0.00,,---,0.00,VWS V14.00,2013-07-28 05:14:00,
2013-07-28 01:15:00,57.2,51.4,29.81,SW,236,0.0,0.0,81,0.00,,---,0.00,VWS V14.00,2013-07-28 05:15:00,
2013-07-28 01:16:00,57.1,51.3,29.81,SW,234,0.0,0.0,81,0.00,,---,0.00,VWS V14.00,2013-07-28 05:16:00,
2013-07-28 01:17:00,57.1,51.3,29.81,SW,234,0.0,0.0,81,0.00,,---,0.00,VWS V14.00,2013-07-28 05:17:00,
2013-07-28 01:18:00,57.1,51.3,29.81,SW,235,0.0,0.0,81,0.00,,---,0.00,VWS V14.00,2013-07-28 05:18:00,
2013-07-28 01:20:00,57.0,51.6,29.81,SW,236,0.0,0.0,82,0.00,,---,0.00,VWS V14.00,2013-07-28 05:20:00,
2013-07-28 01:21:00,57.0,51.6,29.81,SW,236,0.0,0.0,82,0.00,,---,0.00,VWS V14.00,2013-07-28 05:21:00,
2013-07-28 01:22:00,57.0,51.6,29.81,WSW,237,0.0,0.0,82,0.00,,---,0.00,VWS V14.00,2013-07-28 05:22:00,
2013-07-28 01:23:00,57.0,51.6,29.81,WSW,238,0.0,0.0,82,0.00,,---,0.00,VWS V14.00,2013-07-28 05:23:00,
2013-07-28 01:24:00,57.0,51.6,29.81,WSW,241,0.0,0.0,82,0.00,,---,0.00,VWS V14.00,2013-07-28 05:24:00,
2013-07-28 01:26:00,57.0,51.6,29.81,WSW,241,0.0,0.0,82,0.00,,---,0.00,VWS V14.00,2013-07-28 05:26:00,
2013-07-28 01:27:00,57.0,51.6,29.81,WSW,253,0.0,1.0,82,0.00,,---,0.00,VWS V14.00,2013-07-28 05:27:00,
2013-07-28 01:28:00,57.0,51.6,29.81,WSW,253,1.0,1.0,82,0.00,,---,0.00,VWS V14.00,2013-07-28 05:28:00,
2013-07-28 01:31:00,57.0,51.6,29.81,WSW,248,0.0,1.0,82,0.00,,---,0.00,VWS V14.00,2013-07-28 05:31:00,
2013-07-28 01:33:00,57.0,51.6,29.81,WSW,246,0.0,1.0,82,0.00,,---,0.00,VWS V14.00,2013-07-28 05:33:00,
2013-07-28 01:36:00,57.1,51.7,29.81,WSW,245,0.0,1.0,82,0.00,,---,0.00,VWS V14.00,2013-07-28 05:36:00,
2013-07-28 01:38:00,57.1,51.7,29.81,SW,223,0.0,1.0,82,0.00,,---,0.00,VWS V14.00,2013-07-28 05:38:00,
2013-07-28 01:39:00,57.1,51.7,29.81,SW,232,0.0,1.0,82,0.00,,---,0.00,VWS V14.00,2013-07-28 05:39:00,
2013-07-28 01:41:00,57.0,51.6,29.81,SW,232,1.0,1.0,82,0.00,,---,0.00,VWS V14.00,2013-07-28 05:41:00,
2013-07-28 01:42:00,57.0,51.6,29.80,SW,234,0.0,1.0,82,0.00,,---,0.00,VWS V14.00,2013-07-28 05:42:00,
2013-07-28 01:44:00,57.1,51.7,29.80,SW,235,0.0,1.0,82,0.00,,---,0.00,VWS V14.00,2013-07-28 05:44:00,
2013-07-28 01:46:00,57.1,51.7,29.80,SW,236,0.0,1.0,82,0.00,,---,0.00,VWS V14.00,2013-07-28 05:46:00,
2013-07-28 01:47:00,57.0,51.6,29.80,SW,236,0.0,1.0,82,0.00,,---,0.00,VWS V14.00,2013-07-28 05:47:00,
2013-07-28 01:48:00,57.1,51.7,29.80,SW,236,0.0,1.0,82,0.00,,---,0.00,VWS V14.00,2013-07-28 05:48:00,
2013-07-28 01:51:00,57.1,51.7,29.80,SW,234,0.0,1.0,82,0.00,,---,0.00,VWS V14.00,2013-07-28 05:51:00,
2013-07-28 01:52:00,57.1,51.7,29.80,SW,233,0.0,1.0,82,0.00,,---,0.00,VWS V14.00,2013-07-28 05:52:00,
2013-07-28 01:53:00,57.1,51.7,29.80,SW,233,0.0,1.0,82,0.00,,---,0.00,VWS V14.00,2013-07-28 05:53:00,
2013-07-28 01:55:00,57.1,51.7,29.80,SW,233,0.0,1.0,82,0.00,,---,0.00,VWS V14.00,2013-07-28 05:55:00,
2013-07-28 01:57:00,57.1,51.7,29.80,WSW,240,0.0,1.0,82,0.00,,---,0.00,VWS V14.00,2013-07-28 05:57:00,
2013-07-28 01:58:00,57.1,51.7,29.80,WSW,240,0.0,1.0,82,0.00,,---,0.00,VWS V14.00,2013-07-28 05:58:00,
2013-07-28 02:00:00,57.2,51.8,29.80,SW,230,1.0,1.0,82,0.00,,---,0.00,VWS V14.00,2013-07-28 06:00:00,
2013-07-28 02:01:00,57.2,51.8,29.80,SW,236,0.0,2.0,82,0.00,,---,0.00,VWS V14.00,2013-07-28 06:01:00,
2013-07-28 02:03:00,57.2,51.4,29.80,WSW,249,0.0,1.0,81,0.00,,---,0.00,VWS V14.00,2013-07-28 06:03:00,
2013-07-28 02:04:00,57.2,51.4,29.80,WSW,244,0.0,1.0,81,0.00,,---,0.00,VWS V14.00,2013-07-28 06:04:00,
2013-07-28 02:05:00,57.2,51.4,29.80,WSW,237,0.0,1.0,81,0.00,,---,0.00,VWS V14.00,2013-07-28 06:05:00,
2013-07-28 02:07:00,57.2,51.4,29.80,WSW,239,0.0,1.0,81,0.00,,---,0.00,VWS V14.00,2013-07-28 06:07:00,
2013-07-28 02:08:00,57.2,51.4,29.80,WSW,244,1.0,1.0,81,0.00,,---,0.00,VWS V14.00,2013-07-28 06:08:00,
2013-07-28 02:09:00,57.2,51.4,29.80,WSW,244,0.0,1.0,81,0.00,,---,0.00,VWS V14.00,2013-07-28 06:09:00,
2013-07-28 02:11:00,57.2,51.4,29.80,WSW,240,0.0,1.0,81,0.00,,---,0.00,VWS V14.00,2013-07-28 06:11:00,
2013-07-28 02:13:00,57.2,51.4,29.80,WSW,250,0.0,1.0,81,0.00,,---,0.00,VWS V14.00,2013-07-28 06:13:00,
2013-07-28 02:15:00,57.2,51.4,29.80,WSW,251,0.0,1.0,81,0.00,,---,0.00,VWS V14.00,2013-07-28 06:15:00,
2013-07-28 02:19:00,57.3,51.5,29.81,West,265,0.0,2.0,81,0.00,,---,0.00,VWS V14.00,2013-07-28 06:19:00,
2013-07-28 02:21:00,57.3,51.5,29.81,West,261,0.0,2.0,81,0.00,,---,0.00,VWS V14.00,2013-07-28 06:21:00,
2013-07-28 02:22:00,57.3,51.5,29.81,West,267,0.0,2.0,81,0.00,,---,0.00,VWS V14.00,2013-07-28 06:22:00,
2013-07-28 02:25:00,57.3,51.9,29.81,West,264,0.0,16.0,82,0.00,,---,0.00,VWS V14.00,2013-07-28 06:25:00,
2013-07-28 02:27:00,57.3,51.9,29.81,West,267,4.0,16.0,82,0.00,,---,0.00,VWS V14.00,2013-07-28 06:27:00,
2013-07-28 02:28:00,57.2,52.1,29.81,West,271,12.0,16.0,83,0.00,,---,0.00,VWS V14.00,2013-07-28 06:28:00,
2013-07-28 02:29:00,57.1,52.0,29.81,West,275,4.0,16.0,83,0.00,,---,0.00,VWS V14.00,2013-07-28 06:29:00,
2013-07-28 02:31:00,57.0,51.9,29.81,West,260,0.0,1.0,83,0.00,,---,0.00,VWS V14.00,2013-07-28 06:31:00,
2013-07-28 02:32:00,56.9,52.1,29.81,West,261,0.0,1.0,84,0.00,,---,0.00,VWS V14.00,2013-07-28 06:32:00,
2013-07-28 02:33:00,56.9,52.1,29.81,West,265,1.0,1.0,84,0.00,,---,0.00,VWS V14.00,2013-07-28 06:33:00,
2013-07-28 02:35:00,56.7,51.9,29.81,West,264,0.0,1.0,84,0.00,,---,0.00,VWS V14.00,2013-07-28 06:35:00,
2013-07-28 02:36:00,56.6,51.8,29.81,West,265,0.0,1.0,84,0.00,,---,0.00,VWS V14.00,2013-07-28 06:36:00,
2013-07-28 02:38:00,56.5,52.0,29.81,West,265,0.0,2.0,85,0.00,,---,0.00,VWS V14.00,2013-07-28 06:38:00,
2013-07-28 02:40:00,56.4,52.0,29.81,West,273,0.0,2.0,85,0.01,,---,0.01,VWS V14.00,2013-07-28 06:40:00,
2013-07-28 02:41:00,56.3,51.9,29.81,West,272,0.0,2.0,85,0.01,,---,0.01,VWS V14.00,2013-07-28 06:41:00,
2013-07-28 02:43:00,56.2,52.1,29.81,WSW,253,0.0,2.0,86,0.01,,---,0.01,VWS V14.00,2013-07-28 06:43:00,
2013-07-28 02:45:00,56.1,52.0,29.81,WSW,253,0.0,2.0,86,0.02,,---,0.02,VWS V14.00,2013-07-28 06:45:00,
2013-07-28 02:46:00,56.0,52.2,29.81,WSW,254,0.0,2.0,87,0.02,,---,0.02,VWS V14.00,2013-07-28 06:46:00,
2013-07-28 02:47:00,56.0,52.2,29.81,WSW,254,0.0,2.0,87,0.02,,---,0.02,VWS V14.00,2013-07-28 06:47:00,
2013-07-28 02:49:00,55.9,52.1,29.81,West,261,0.0,2.0,87,0.02,,---,0.02,VWS V14.00,2013-07-28 06:49:00,
2013-07-28 02:50:00,55.9,52.1,29.81,West,261,0.0,2.0,87,0.03,,---,0.03,VWS V14.00,2013-07-28 06:50:00,
2013-07-28 02:51:00,55.8,52.3,29.81,West,261,0.0,2.0,88,0.03,,---,0.03,VWS V14.00,2013-07-28 06:51:00,
2013-07-28 02:52:00,55.8,52.3,29.81,West,261,0.0,2.0,88,0.03,,---,0.03,VWS V14.00,2013-07-28 06:52:00,
2013-07-28 02:53:00,55.8,52.3,29.81,West,263,0.0,2.0,88,0.03,,---,0.03,VWS V14.00,2013-07-28 06:53:00,
2013-07-28 02:54:00,55.8,52.3,29.81,West,264,0.0,2.0,88,0.04,,---,0.04,VWS V14.00,2013-07-28 06:54:00,
2013-07-28 02:57:00,55.7,52.2,29.81,West,265,0.0,2.0,88,0.04,,---,0.04,VWS V14.00,2013-07-28 06:57:00,
2013-07-28 02:58:00,55.6,52.4,29.81,West,265,0.0,2.0,89,0.05,,---,0.05,VWS V14.00,2013-07-28 06:58:00,
2013-07-28 03:00:00,55.5,52.3,29.81,West,265,0.0,2.0,89,0.06,,---,0.06,VWS V14.00,2013-07-28 07:00:00,
2013-07-28 03:01:00,55.5,52.3,29.81,West,265,0.0,2.0,89,0.07,,---,0.07,VWS V14.00,2013-07-28 07:01:00,
2013-07-28 03:02:00,55.4,53.1,29.81,West,265,0.0,0.0,92,0.07,,---,0.07,VWS V14.00,2013-07-28 07:02:00,
2013-07-28 03:03:00,55.4,53.1,29.81,West,265,0.0,0.0,92,0.07,,---,0.07,VWS V14.00,2013-07-28 07:03:00,
2013-07-28 03:05:00,55.3,52.4,29.81,West,277,0.0,0.0,90,0.08,,---,0.08,VWS V14.00,2013-07-28 07:05:00,
2013-07-28 03:06:00,55.2,52.3,29.81,West,277,0.0,0.0,90,0.08,,---,0.08,VWS V14.00,2013-07-28 07:06:00,
2013-07-28 03:08:00,55.1,52.2,29.81,West,277,0.0,0.0,90,0.08,,---,0.08,VWS V14.00,2013-07-28 07:08:00,
2013-07-28 03:09:00,55.1,52.2,29.81,WNW,288,0.0,0.0,90,0.08,,---,0.08,VWS V14.00,2013-07-28 07:09:00,
2013-07-28 03:10:00,55.1,52.2,29.81,WNW,300,0.0,0.0,90,0.09,,---,0.09,VWS V14.00,2013-07-28 07:10:00,
2013-07-28 03:12:00,55.0,52.1,29.81,WNW,300,0.0,0.0,90,0.09,,---,0.09,VWS V14.00,2013-07-28 07:12:00,
2013-07-28 03:15:00,54.9,52.0,29.81,WNW,300,0.0,0.0,90,0.09,,---,0.09,VWS V14.00,2013-07-28 07:15:00,
2013-07-28 03:18:00,54.9,52.3,29.81,WNW,300,0.0,0.0,91,0.09,,---,0.09,VWS V14.00,2013-07-28 07:18:00,
2013-07-28 03:20:00,54.9,52.3,29.81,WNW,300,0.0,0.0,91,0.09,,---,0.09,VWS V14.00,2013-07-28 07:20:00,
2013-07-28 03:22:00,54.9,52.3,29.81,WNW,300,0.0,0.0,91,0.09,,---,0.09,VWS V14.00,2013-07-28 07:22:00,
2013-07-28 03:25:00,54.9,52.3,29.80,WNW,300,0.0,0.0,91,0.09,,---,0.09,VWS V14.00,2013-07-28 07:25:00,
2013-07-28 03:27:00,54.8,52.2,29.80,WNW,300,0.0,0.0,91,0.09,,---,0.09,VWS V14.00,2013-07-28 07:27:00,
2013-07-28 03:30:00,54.8,52.2,29.80,WNW,300,0.0,0.0,91,0.09,,---,0.09,VWS V14.00,2013-07-28 07:30:00,
2013-07-28 03:31:00,54.7,52.1,29.80,WNW,300,0.0,0.0,91,0.09,,---,0.09,VWS V14.00,2013-07-28 07:31:00,
2013-07-28 03:35:00,54.7,52.1,29.80,WNW,300,0.0,0.0,91,0.09,,---,0.09,VWS V14.00,2013-07-28 07:35:00,
2013-07-28 03:36:00,54.6,52.0,29.80,WNW,300,0.0,0.0,91,0.09,,---,0.09,VWS V14.00,2013-07-28 07:36:00,
2013-07-28 03:37:00,54.6,52.0,29.80,WNW,300,0.0,0.0,91,0.09,,---,0.09,VWS V14.00,2013-07-28 07:37:00,
2013-07-28 03:38:00,54.6,52.0,29.80,WNW,300,0.0,0.0,91,0.09,,---,0.09,VWS V14.00,2013-07-28 07:38:00,
2013-07-28 03:41:00,54.6,52.3,29.80,WNW,300,0.0,0.0,92,0.09,,---,0.09,VWS V14.00,2013-07-28 07:41:00,
2013-07-28 03:42:00,54.6,52.3,29.80,WNW,300,0.0,0.0,92,0.09,,---,0.09,VWS V14.00,2013-07-28 07:42:00,
2013-07-28 03:43:00,54.6,52.3,29.80,WNW,300,0.0,0.0,92,0.09,,---,0.09,VWS V14.00,2013-07-28 07:43:00,
2013-07-28 03:45:00,54.7,52.4,29.80,WNW,300,0.0,0.0,92,0.09,,---,0.09,VWS V14.00,2013-07-28 07:45:00,
2013-07-28 03:47:00,54.8,52.5,29.80,WNW,300,0.0,0.0,92,0.09,,---,0.09,VWS V14.00,2013-07-28 07:47:00,
2013-07-28 03:48:00,54.8,52.5,29.80,WNW,300,0.0,0.0,92,0.09,,---,0.09,VWS V14.00,2013-07-28 07:48:00,
2013-07-28 03:49:00,54.8,52.5,29.80,WNW,300,0.0,0.0,92,0.09,,---,0.09,VWS V14.00,2013-07-28 07:49:00,
2013-07-28 03:51:00,54.8,52.5,29.80,WNW,300,0.0,0.0,92,0.09,,---,0.09,VWS V14.00,2013-07-28 07:51:00,
2013-07-28 03:52:00,54.8,52.5,29.80,WNW,300,0.0,0.0,92,0.09,,---,0.09,VWS V14.00,2013-07-28 07:52:00,
2013-07-28 03:53:00,54.9,52.6,29.80,WNW,300,0.0,0.0,92,0.09,,---,0.09,VWS V14.00,2013-07-28 07:53:00,
2013-07-28 03:55:00,55.0,52.7,29.80,WNW,300,0.0,0.0,92,0.09,,---,0.09,VWS V14.00,2013-07-28 07:55:00,
2013-07-28 03:58:00,55.2,52.9,29.80,WNW,299,0.0,0.0,92,0.09,,---,0.09,VWS V14.00,2013-07-28 07:58:00,
2013-07-28 03:59:00,55.2,52.9,29.80,WNW,299,0.0,0.0,92,0.09,,---,0.09,VWS V14.00,2013-07-28 07:59:00,
2013-07-28 04:00:00,55.2,52.9,29.79,WNW,299,0.0,0.0,92,0.09,,---,0.09,VWS V14.00,2013-07-28 08:00:00,
2013-07-28 04:04:00,55.3,53.0,29.80,WNW,299,0.0,0.0,92,0.02,,---,0.09,VWS V14.00,2013-07-28 08:04:00,
2013-07-28 04:05:00,55.4,53.1,29.80,WNW,299,0.0,0.0,92,0.02,,---,0.09,VWS V14.00,2013-07-28 08:05:00,
2013-07-28 04:06:00,55.4,53.1,29.80,WNW,299,0.0,0.0,92,0.02,,---,0.09,VWS V14.00,2013-07-28 08:06:00,
2013-07-28 04:07:00,55.4,53.1,29.80,WNW,299,0.0,0.0,92,0.02,,---,0.09,VWS V14.00,2013-07-28 08:07:00,
2013-07-28 04:09:00,55.6,53.3,29.80,WNW,299,0.0,0.0,92,0.02,,---,0.09,VWS V14.00,2013-07-28 08:09:00,
2013-07-28 04:10:00,55.6,53.3,29.80,WNW,299,0.0,0.0,92,0.02,,---,0.09,VWS V14.00,2013-07-28 08:10:00,
2013-07-28 04:11:00,55.6,53.3,29.80,WNW,299,0.0,0.0,92,0.02,,---,0.09,VWS V14.00,2013-07-28 08:11:00,
2013-07-28 04:12:00,55.7,53.4,29.80,WNW,299,0.0,0.0,92,0.02,,---,0.09,VWS V14.00,2013-07-28 08:12:00,
2013-07-28 04:13:00,55.7,53.4,29.80,WNW,299,0.0,0.0,92,0.02,,---,0.09,VWS V14.00,2013-07-28 08:13:00,
2013-07-28 04:15:00,55.7,53.4,29.80,WNW,299,0.0,0.0,92,0.02,,---,0.09,VWS V14.00,2013-07-28 08:15:00,
2013-07-28 04:18:00,55.6,53.3,29.80,WNW,299,0.0,0.0,92,0.02,,---,0.09,VWS V14.00,2013-07-28 08:18:00,
2013-07-28 04:21:00,55.7,53.4,29.80,WNW,299,0.0,0.0,92,0.02,,---,0.09,VWS V14.00,2013-07-28 08:21:00,
2013-07-28 04:22:00,55.6,53.3,29.80,WNW,299,0.0,0.0,92,0.02,,---,0.09,VWS V14.00,2013-07-28 08:22:00,
2013-07-28 04:23:00,55.6,53.3,29.79,WNW,299,0.0,0.0,92,0.02,,---,0.09,VWS V14.00,2013-07-28 08:23:00,
2013-07-28 04:24:00,55.6,53.3,29.79,WNW,299,0.0,0.0,92,0.02,,---,0.09,VWS V14.00,2013-07-28 08:24:00,
2013-07-28 04:27:00,55.6,53.3,29.79,WNW,299,0.0,0.0,92,0.02,,---,0.09,VWS V14.00,2013-07-28 08:27:00,
2013-07-28 04:28:00,55.6,53.3,29.79,WNW,299,0.0,0.0,92,0.02,,---,0.09,VWS V14.00,2013-07-28 08:28:00,
2013-07-28 04:29:00,55.6,53.3,29.79,WNW,299,0.0,0.0,92,0.02,,---,0.09,VWS V14.00,2013-07-28 08:29:00,
2013-07-28 04:30:00,55.6,53.3,29.79,WNW,295,0.0,0.0,92,0.02,,---,0.09,VWS V14.00,2013-07-28 08:30:00,
2013-07-28 04:32:00,55.7,53.4,29.79,WNW,290,0.0,0.0,92,0.00,,---,0.09,VWS V14.00,2013-07-28 08:32:00,
2013-07-28 04:34:00,55.7,53.4,29.79,WNW,283,0.0,0.0,92,0.00,,---,0.09,VWS V14.00,2013-07-28 08:34:00,
2013-07-28 04:35:00,55.7,53.4,29.79,WNW,283,0.0,0.0,92,0.00,,---,0.09,VWS V14.00,2013-07-28 08:35:00,
2013-07-28 04:36:00,55.7,53.4,29.79,WNW,283,0.0,0.0,92,0.00,,---,0.09,VWS V14.00,2013-07-28 08:36:00,
2013-07-28 04:37:00,55.7,53.4,29.80,WNW,282,0.0,0.0,92,0.00,,---,0.09,VWS V14.00,2013-07-28 08:37:00,
2013-07-28 04:38:00,55.7,53.4,29.80,West,281,0.0,0.0,92,0.00,,---,0.09,VWS V14.00,2013-07-28 08:38:00,
2013-07-28 04:40:00,55.8,53.5,29.80,WNW,282,0.0,0.0,92,0.00,,---,0.09,VWS V14.00,2013-07-28 08:40:00,
2013-07-28 04:41:00,55.8,53.5,29.80,West,279,0.0,0.0,92,0.00,,---,0.09,VWS V14.00,2013-07-28 08:41:00,
2013-07-28 04:42:00,55.8,53.5,29.80,WSW,255,0.0,1.0,92,0.00,,---,0.09,VWS V14.00,2013-07-28 08:42:00,
2013-07-28 04:43:00,55.8,53.5,29.80,WSW,255,0.0,1.0,92,0.00,,---,0.09,VWS V14.00,2013-07-28 08:43:00,
2013-07-28 04:44:00,55.8,53.5,29.80,WSW,255,0.0,1.0,92,0.00,,---,0.09,VWS V14.00,2013-07-28 08:44:00,
2013-07-28 04:46:00,55.9,53.6,29.80,WSW,257,0.0,1.0,92,0.00,,---,0.09,VWS V14.00,2013-07-28 08:46:00,
2013-07-28 04:48:00,55.9,53.6,29.80,WSW,257,0.0,1.0,92,0.00,,---,0.09,VWS V14.00,2013-07-28 08:48:00,
2013-07-28 04:49:00,55.9,53.6,29.80,WSW,257,0.0,1.0,92,0.00,,---,0.09,VWS V14.00,2013-07-28 08:49:00,
2013-07-28 04:51:00,55.9,53.6,29.80,WSW,257,0.0,1.0,92,0.00,,---,0.09,VWS V14.00,2013-07-28 08:51:00,
2013-07-28 04:52:00,55.9,53.3,29.80,WSW,257,0.0,1.0,91,0.00,,---,0.09,VWS V14.00,2013-07-28 08:52:00,
2013-07-28 04:55:00,55.9,53.3,29.80,WSW,257,0.0,1.0,91,0.00,,---,0.09,VWS V14.00,2013-07-28 08:55:00,
2013-07-28 04:57:00,55.9,53.3,29.80,WSW,257,0.0,1.0,91,0.00,,---,0.09,VWS V14.00,2013-07-28 08:57:00,
2013-07-28 04:58:00,55.9,53.3,29.79,WSW,257,0.0,1.0,91,0.00,,---,0.09,VWS V14.00,2013-07-28 08:58:00,
2013-07-28 05:01:00,55.9,53.3,29.79,WSW,257,0.0,1.0,91,0.00,,---,0.09,VWS V14.00,2013-07-28 09:01:00,
2013-07-28 05:03:00,55.8,53.2,29.79,WSW,257,0.0,0.0,91,0.00,,---,0.09,VWS V14.00,2013-07-28 09:03:00,
2013-07-28 05:04:00,55.8,53.2,29.79,WSW,257,0.0,0.0,91,0.00,,---,0.09,VWS V14.00,2013-07-28 09:04:00,
2013-07-28 05:05:00,55.8,53.2,29.79,WSW,257,0.0,0.0,91,0.00,,---,0.09,VWS V14.00,2013-07-28 09:05:00,
2013-07-28 05:08:00,55.8,53.2,29.78,WSW,257,0.0,0.0,91,0.00,,---,0.09,VWS V14.00,2013-07-28 09:08:00,
2013-07-28 05:10:00,55.8,53.2,29.79,WSW,257,0.0,1.0,91,0.00,,---,0.09,VWS V14.00,2013-07-28 09:10:00,
2013-07-28 05:11:00,55.8,53.2,29.78,WSW,252,4.0,4.0,91,0.00,,---,0.09,VWS V14.00,2013-07-28 09:11:00,
2013-07-28 05:12:00,55.8,53.2,29.78,WSW,237,0.0,4.0,91,0.00,,---,0.09,VWS V14.00,2013-07-28 09:12:00,
2013-07-28 05:14:00,55.7,53.1,29.79,WSW,237,0.0,4.0,91,0.00,,---,0.09,VWS V14.00,2013-07-28 09:14:00,
2013-07-28 05:16:00,55.7,53.1,29.79,SW,233,0.0,4.0,91,0.00,,---,0.09,VWS V14.00,2013-07-28 09:16:00,
2013-07-28 05:18:00,55.7,53.1,29.79,SW,234,0.0,4.0,91,0.00,,---,0.09,VWS V14.00,2013-07-28 09:18:00,
2013-07-28 05:19:00,55.8,53.2,29.79,SW,234,0.0,4.0,91,0.00,,---,0.09,VWS V14.00,2013-07-28 09:19:00,
2013-07-28 05:21:00,55.8,53.2,29.79,SW,234,0.0,4.0,91,0.00,,---,0.09,VWS V14.00,2013-07-28 09:21:00,
2013-07-28 05:22:00,55.8,53.2,29.79,SW,234,0.0,4.0,91,0.00,,---,0.09,VWS V14.00,2013-07-28 09:22:00,
2013-07-28 05:23:00,55.9,53.3,29.79,SW,234,0.0,4.0,91,0.00,,---,0.09,VWS V14.00,2013-07-28 09:23:00,
2013-07-28 05:24:00,55.9,53.3,29.79,SW,234,0.0,4.0,91,0.00,,---,0.09,VWS V14.00,2013-07-28 09:24:00,
2013-07-28 05:27:00,55.9,53.3,29.79,SW,234,0.0,4.0,91,0.00,,---,0.09,VWS V14.00,2013-07-28 09:27:00,
2013-07-28 05:28:00,55.9,53.3,29.79,SW,234,0.0,4.0,91,0.00,,---,0.09,VWS V14.00,2013-07-28 09:28:00,
2013-07-28 05:29:00,55.9,53.3,29.79,SW,234,0.0,4.0,91,0.00,,---,0.09,VWS V14.00,2013-07-28 09:29:00,
2013-07-28 05:30:00,55.9,53.3,29.79,SW,234,0.0,4.0,91,0.00,,---,0.09,VWS V14.00,2013-07-28 09:30:00,
2013-07-28 05:31:00,55.9,53.3,29.79,SW,234,0.0,4.0,91,0.00,,---,0.09,VWS V14.00,2013-07-28 09:31:00,
2013-07-28 05:32:00,55.9,53.0,29.79,SW,234,0.0,0.0,90,0.00,,---,0.09,VWS V14.00,2013-07-28 09:32:00,
2013-07-28 05:35:00,55.9,53.0,29.79,SW,235,1.0,1.0,90,0.00,,---,0.09,VWS V14.00,2013-07-28 09:35:00,
2013-07-28 05:36:00,55.9,53.0,29.79,SW,236,0.0,1.0,90,0.00,,---,0.09,VWS V14.00,2013-07-28 09:36:00,
2013-07-28 05:38:00,55.9,53.0,29.79,WSW,250,1.0,2.0,90,0.00,,---,0.09,VWS V14.00,2013-07-28 09:38:00,
2013-07-28 05:40:00,55.9,53.0,29.79,WSW,252,0.0,2.0,90,0.00,,---,0.09,VWS V14.00,2013-07-28 09:40:00,
2013-07-28 05:41:00,55.9,53.0,29.79,WSW,252,0.0,2.0,90,0.00,,---,0.09,VWS V14.00,2013-07-28 09:41:00,
2013-07-28 05:42:00,55.9,53.0,29.79,WSW,252,0.0,2.0,90,0.00,,---,0.09,VWS V14.00,2013-07-28 09:42:00,
2013-07-28 05:44:00,55.9,53.0,29.79,WSW,252,0.0,2.0,90,0.00,,---,0.09,VWS V14.00,2013-07-28 09:44:00,
2013-07-28 05:47:00,55.9,53.0,29.79,WSW,252,0.0,2.0,90,0.00,,---,0.09,VWS V14.00,2013-07-28 09:47:00,
2013-07-28 05:48:00,55.9,53.0,29.79,WSW,252,0.0,2.0,90,0.00,,---,0.09,VWS V14.00,2013-07-28 09:48:00,
2013-07-28 05:49:00,55.9,53.0,29.79,WSW,252,0.0,2.0,90,0.00,,---,0.09,VWS V14.00,2013-07-28 09:49:00,
2013-07-28 05:53:00,55.9,53.0,29.79,WSW,256,0.0,5.0,90,0.00,,---,0.09,VWS V14.00,2013-07-28 09:53:00,
2013-07-28 05:56:00,55.8,52.9,29.79,WSW,256,4.0,5.0,90,0.00,,---,0.09,VWS V14.00,2013-07-28 09:56:00,
2013-07-28 05:58:00,55.8,52.9,29.79,West,265,1.0,5.0,90,0.00,,---,0.09,VWS V14.00,2013-07-28 09:58:00,
2013-07-28 06:00:00,55.7,52.8,29.79,WNW,288,1.0,7.0,90,0.00,,---,0.09,VWS V14.00,2013-07-28 10:00:00,
2013-07-28 06:01:00,55.7,52.8,29.79,West,276,0.0,7.0,90,0.00,,---,0.09,VWS V14.00,2013-07-28 10:01:00,
2013-07-28 06:03:00,55.6,52.7,29.79,WSW,257,0.0,9.0,90,0.00,,---,0.09,VWS V14.00,2013-07-28 10:03:00,
2013-07-28 06:04:00,55.6,52.7,29.79,West,275,0.0,9.0,90,0.00,,---,0.09,VWS V14.00,2013-07-28 10:04:00,
2013-07-28 06:05:00,55.5,52.6,29.79,West,275,0.0,9.0,90,0.00,,---,0.09,VWS V14.00,2013-07-28 10:05:00,
2013-07-28 06:06:00,55.5,52.6,29.79,West,273,0.0,9.0,90,0.00,,---,0.09,VWS V14.00,2013-07-28 10:06:00,
2013-07-28 06:09:00,55.4,52.5,29.79,West,267,0.0,9.0,90,0.00,,---,0.09,VWS V14.00,2013-07-28 10:09:00,
2013-07-28 06:11:00,55.4,52.5,29.80,West,273,4.0,9.0,90,0.00,,---,0.09,VWS V14.00,2013-07-28 10:11:00,
2013-07-28 06:12:00,55.4,52.5,29.79,West,273,5.0,9.0,90,0.01,,---,0.10,VWS V14.00,2013-07-28 10:12:00,
2013-07-28 06:16:00,55.3,52.4,29.80,West,279,2.0,9.0,90,0.01,,---,0.10,VWS V14.00,2013-07-28 10:16:00,
2013-07-28 06:17:00,55.3,52.4,29.80,West,279,0.0,9.0,90,0.01,,---,0.10,VWS V14.00,2013-07-28 10:17:00,
2013-07-28 06:18:00,55.3,52.4,29.80,West,279,0.0,9.0,90,0.01,,---,0.10,VWS V14.00,2013-07-28 10:18:00,
2013-07-28 06:22:00,55.3,52.4,29.80,West,272,5.0,9.0,90,0.01,,---,0.10,VWS V14.00,2013-07-28 10:22:00,
2013-07-28 06:23:00,55.3,52.4,29.80,West,271,0.0,9.0,90,0.01,,---,0.10,VWS V14.00,2013-07-28 10:23:00,
2013-07-28 06:24:00,55.3,52.7,29.80,WSW,253,3.0,9.0,91,0.01,,---,0.10,VWS V14.00,2013-07-28 10:24:00,
2013-07-28 06:27:00,55.3,52.7,29.80,WSW,238,0.0,9.0,91,0.01,,---,0.10,VWS V14.00,2013-07-28 10:27:00,
2013-07-28 06:29:00,55.3,52.7,29.80,West,265,3.0,9.0,91,0.01,,---,0.10,VWS V14.00,2013-07-28 10:29:00,
2013-07-28 06:31:00,55.3,52.7,29.80,West,261,4.0,5.0,91,0.01,,---,0.10,VWS V14.00,2013-07-28 10:31:00,
2013-07-28 06:35:00,55.4,52.5,29.80,West,260,6.0,6.0,90,0.01,,---,0.10,VWS V14.00,2013-07-28 10:35:00,
2013-07-28 06:36:00,55.4,52.5,29.80,West,260,3.0,6.0,90,0.01,,---,0.10,VWS V14.00,2013-07-28 10:36:00,
2013-07-28 06:37:00,55.4,52.5,29.80,West,260,0.0,6.0,90,0.01,,---,0.10,VWS V14.00,2013-07-28 10:37:00,
2013-07-28 06:38:00,55.4,52.5,29.80,West,260,0.0,6.0,90,0.01,,---,0.10,VWS V14.00,2013-07-28 10:38:00,
2013-07-28 06:39:00,55.4,52.5,29.80,West,263,5.0,6.0,90,0.01,,---,0.10,VWS V14.00,2013-07-28 10:39:00,
2013-07-28 06:42:00,55.4,52.5,29.80,West,263,0.0,6.0,90,0.01,,---,0.10,VWS V14.00,2013-07-28 10:42:00,
2013-07-28 06:44:00,55.4,52.5,29.80,West,263,3.0,6.0,90,0.01,,---,0.10,VWS V14.00,2013-07-28 10:44:00,
2013-07-28 06:45:00,55.4,52.5,29.80,West,263,3.0,6.0,90,0.01,,---,0.10,VWS V14.00,2013-07-28 10:45:00,
2013-07-28 06:47:00,55.5,52.6,29.80,West,263,0.0,6.0,90,0.01,,---,0.10,VWS V14.00,2013-07-28 10:47:00,
2013-07-28 06:48:00,55.5,52.6,29.80,West,263,0.0,6.0,90,0.01,,---,0.10,VWS V14.00,2013-07-28 10:48:00,
2013-07-28 06:50:00,55.5,52.6,29.80,West,259,3.0,6.0,90,0.01,,---,0.10,VWS V14.00,2013-07-28 10:50:00,
2013-07-28 06:53:00,55.5,52.6,29.80,WSW,248,2.0,6.0,90,0.01,,---,0.10,VWS V14.00,2013-07-28 10:53:00,
2013-07-28 06:57:00,55.6,52.7,29.81,WSW,250,3.0,6.0,90,0.01,,---,0.10,VWS V14.00,2013-07-28 10:57:00,
2013-07-28 06:58:00,55.6,52.7,29.81,WSW,250,3.0,6.0,90,0.01,,---,0.10,VWS V14.00,2013-07-28 10:58:00,
2013-07-28 06:59:00,55.7,52.8,29.80,West,261,5.0,6.0,90,0.01,,---,0.10,VWS V14.00,2013-07-28 10:59:00,
2013-07-28 07:01:00,55.6,52.7,29.81,WSW,253,0.0,0.0,90,0.01,,---,0.10,VWS V14.00,2013-07-28 11:01:00,
2013-07-28 07:03:00,55.6,52.7,29.81,WSW,253,0.0,4.0,90,0.01,,---,0.10,VWS V14.00,2013-07-28 11:03:00,
2013-07-28 07:04:00,55.6,52.7,29.81,WSW,255,4.0,4.0,90,0.01,,---,0.10,VWS V14.00,2013-07-28 11:04:00,
2013-07-28 07:09:00,55.7,52.8,29.81,WSW,258,3.0,6.0,90,0.01,,---,0.10,VWS V14.00,2013-07-28 11:09:00,
2013-07-28 07:10:00,55.7,52.8,29.81,West,259,4.0,6.0,90,0.01,,---,0.10,VWS V14.00,2013-07-28 11:10:00,
2013-07-28 07:11:00,55.7,52.8,29.81,WSW,258,0.0,6.0,90,0.01,,---,0.10,VWS V14.00,2013-07-28 11:11:00,
2013-07-28 07:14:00,55.7,52.8,29.81,WSW,257,0.0,6.0,90,0.01,,---,0.10,VWS V14.00,2013-07-28 11:14:00,
2013-07-28 07:15:00,55.7,52.8,29.81,West,259,2.0,7.0,90,0.01,,---,0.10,VWS V14.00,2013-07-28 11:15:00,
2013-07-28 07:17:00,55.7,52.8,29.81,West,259,0.0,7.0,90,0.01,,---,0.10,VWS V14.00,2013-07-28 11:17:00,
2013-07-28 07:19:00,55.7,52.8,29.81,WSW,257,0.0,7.0,90,0.01,,---,0.10,VWS V14.00,2013-07-28 11:19:00,
2013-07-28 07:20:00,55.8,52.9,29.81,WSW,257,0.0,7.0,90,0.01,,---,0.10,VWS V14.00,2013-07-28 11:20:00,
2013-07-28 07:21:00,55.7,52.8,29.81,WSW,258,2.0,7.0,90,0.01,,---,0.10,VWS V14.00,2013-07-28 11:21:00,
2013-07-28 07:24:00,55.8,52.6,29.81,WSW,242,1.0,7.0,89,0.01,,---,0.10,VWS V14.00,2013-07-28 11:24:00,
2013-07-28 07:25:00,55.8,52.6,29.81,SW,235,6.0,8.0,89,0.01,,---,0.10,VWS V14.00,2013-07-28 11:25:00,
2013-07-28 07:26:00,55.8,52.6,29.81,SW,231,1.0,8.0,89,0.01,,---,0.10,VWS V14.00,2013-07-28 11:26:00,
2013-07-28 07:27:00,55.8,52.6,29.81,SW,232,2.0,8.0,89,0.01,,---,0.10,VWS V14.00,2013-07-28 11:27:00,
2013-07-28 07:29:00,55.8,52.6,29.82,WSW,249,1.0,8.0,89,0.01,,---,0.10,VWS V14.00,2013-07-28 11:29:00,
2013-07-28 07:30:00,55.8,52.6,29.82,WSW,249,1.0,8.0,89,0.01,,---,0.10,VWS V14.00,2013-07-28 11:30:00,
2013-07-28 07:31:00,55.8,52.6,29.82,WSW,249,4.0,8.0,89,0.01,,---,0.10,VWS V14.00,2013-07-28 11:31:00,
2013-07-28 07:33:00,55.8,52.6,29.82,WSW,252,3.0,5.0,89,0.00,,---,0.10,VWS V14.00,2013-07-28 11:33:00,
2013-07-28 07:36:00,55.8,52.6,29.82,WSW,252,3.0,5.0,89,0.00,,---,0.10,VWS V14.00,2013-07-28 11:36:00,
2013-07-28 07:37:00,55.7,52.5,29.82,WSW,252,0.0,5.0,89,0.00,,---,0.10,VWS V14.00,2013-07-28 11:37:00,
2013-07-28 07:38:00,55.7,52.5,29.82,WSW,252,2.0,5.0,89,0.00,,---,0.10,VWS V14.00,2013-07-28 11:38:00,
2013-07-28 07:39:00,55.7,52.5,29.82,WSW,250,0.0,5.0,89,0.00,,---,0.10,VWS V14.00,2013-07-28 11:39:00,
2013-07-28 07:42:00,55.6,52.4,29.82,WSW,249,0.0,5.0,89,0.00,,---,0.10,VWS V14.00,2013-07-28 11:42:00,
2013-07-28 07:43:00,55.6,52.4,29.82,WSW,250,2.0,5.0,89,0.00,,---,0.10,VWS V14.00,2013-07-28 11:43:00,
2013-07-28 07:45:00,55.6,52.7,29.82,WSW,254,5.0,9.0,90,0.01,,---,0.11,VWS V14.00,2013-07-28 11:45:00,
2013-07-28 07:46:00,55.6,52.7,29.82,WSW,249,3.0,9.0,90,0.01,,---,0.11,VWS V14.00,2013-07-28 11:46:00,
2013-07-28 07:48:00,55.5,52.6,29.82,WSW,252,1.0,9.0,90,0.02,,---,0.12,VWS V14.00,2013-07-28 11:48:00,
2013-07-28 07:50:00,55.4,52.5,29.82,SW,233,4.0,9.0,90,0.02,,---,0.12,VWS V14.00,2013-07-28 11:50:00,
2013-07-28 07:51:00,55.3,52.4,29.82,WSW,250,0.0,9.0,90,0.03,,---,0.13,VWS V14.00,2013-07-28 11:51:00,
2013-07-28 07:52:00,55.3,52.4,29.82,WSW,250,0.0,9.0,90,0.03,,---,0.13,VWS V14.00,2013-07-28 11:52:00,
2013-07-28 07:53:00,55.3,52.4,29.82,West,269,9.0,9.0,90,0.03,,---,0.13,VWS V14.00,2013-07-28 11:53:00,
2013-07-28 07:54:00,55.2,52.3,29.82,WSW,257,4.0,9.0,90,0.03,,---,0.13,VWS V14.00,2013-07-28 11:54:00,
2013-07-28 07:55:00,55.2,52.3,29.82,West,268,3.0,9.0,90,0.03,,---,0.13,VWS V14.00,2013-07-28 11:55:00,
2013-07-28 07:58:00,55.1,52.2,29.82,West,263,7.0,9.0,90,0.03,,---,0.13,VWS V14.00,2013-07-28 11:58:00,
2013-07-28 07:59:00,55.1,52.5,29.82,West,263,4.0,9.0,91,0.03,,---,0.13,VWS V14.00,2013-07-28 11:59:00,
2013-07-28 08:00:00,55.1,52.5,29.82,West,263,3.0,9.0,91,0.03,,---,0.13,VWS V14.00,2013-07-28 12:00:00,
2013-07-28 08:03:00,55.1,52.5,29.82,West,261,2.0,6.0,91,0.03,,---,0.13,VWS V14.00,2013-07-28 12:03:00,
2013-07-28 08:04:00,55.1,52.5,29.83,West,261,3.0,6.0,91,0.03,,---,0.13,VWS V14.00,2013-07-28 12:04:00,
2013-07-28 08:05:00,55.1,52.5,29.83,West,261,3.0,6.0,91,0.03,,---,0.13,VWS V14.00,2013-07-28 12:05:00,
2013-07-28 08:07:00,55.1,52.5,29.83,West,265,7.0,9.0,91,0.03,,---,0.13,VWS V14.00,2013-07-28 12:07:00,
2013-07-28 08:08:00,55.1,52.5,29.82,West,265,3.0,9.0,91,0.03,,---,0.13,VWS V14.00,2013-07-28 12:08:00,
2013-07-28 08:10:00,55.1,52.5,29.83,West,261,1.0,9.0,91,0.03,,---,0.13,VWS V14.00,2013-07-28 12:10:00,
2013-07-28 08:11:00,55.1,52.5,29.83,West,261,3.0,9.0,91,0.03,,---,0.13,VWS V14.00,2013-07-28 12:11:00,
2013-07-28 08:12:00,55.1,52.5,29.83,West,261,5.0,9.0,91,0.03,,---,0.13,VWS V14.00,2013-07-28 12:12:00,
2013-07-28 08:17:00,55.1,52.5,29.83,West,266,2.0,13.0,91,0.04,,---,0.14,VWS V14.00,2013-07-28 12:17:00,
2013-07-28 08:18:00,55.1,52.5,29.83,West,266,1.0,13.0,91,0.04,,---,0.14,VWS V14.00,2013-07-28 12:18:00,
2013-07-28 08:20:00,55.0,52.4,29.83,West,270,3.0,13.0,91,0.04,,---,0.14,VWS V14.00,2013-07-28 12:20:00,
2013-07-28 08:23:00,55.0,52.7,29.83,West,271,0.0,13.0,92,0.05,,---,0.15,VWS V14.00,2013-07-28 12:23:00,
2013-07-28 08:25:00,55.0,52.7,29.83,West,273,2.0,13.0,92,0.06,,---,0.16,VWS V14.00,2013-07-28 12:25:00,
2013-07-28 08:27:00,54.9,52.6,29.83,West,269,4.0,13.0,92,0.06,,---,0.16,VWS V14.00,2013-07-28 12:27:00,
2013-07-28 08:28:00,54.9,52.6,29.83,West,269,3.0,13.0,92,0.06,,---,0.16,VWS V14.00,2013-07-28 12:28:00,
2013-07-28 08:31:00,54.8,52.5,29.83,West,269,3.0,13.0,92,0.06,,---,0.16,VWS V14.00,2013-07-28 12:31:00,
2013-07-28 08:32:00,54.8,52.5,29.83,West,269,1.0,4.0,92,0.06,,---,0.16,VWS V14.00,2013-07-28 12:32:00,
2013-07-28 08:34:00,54.8,52.5,29.83,West,268,1.0,4.0,92,0.06,,---,0.16,VWS V14.00,2013-07-28 12:34:00,
2013-07-28 08:36:00,54.8,52.5,29.83,West,265,2.0,5.0,92,0.06,,---,0.16,VWS V14.00,2013-07-28 12:36:00,
2013-07-28 08:38:00,54.8,52.5,29.83,West,265,0.0,5.0,92,0.06,,---,0.16,VWS V14.00,2013-07-28 12:38:00,
2013-07-28 08:39:00,54.8,52.5,29.83,West,265,2.0,5.0,92,0.06,,---,0.16,VWS V14.00,2013-07-28 12:39:00,
2013-07-28 08:41:00,54.9,52.6,29.83,West,265,0.0,5.0,92,0.06,,---,0.16,VWS V14.00,2013-07-28 12:41:00,
2013-07-28 08:44:00,55.0,53.0,29.83,West,264,4.0,5.0,93,0.06,,---,0.16,VWS V14.00,2013-07-28 12:44:00,
2013-07-28 08:46:00,55.0,53.0,29.83,West,273,0.0,6.0,93,0.06,,---,0.16,VWS V14.00,2013-07-28 12:46:00,
2013-07-28 08:47:00,55.0,53.0,29.83,West,273,6.0,7.0,93,0.06,,---,0.16,VWS V14.00,2013-07-28 12:47:00,
2013-07-28 08:49:00,55.0,53.0,29.83,West,267,0.0,7.0,93,0.06,,---,0.16,VWS V14.00,2013-07-28 12:49:00,
2013-07-28 08:51:00,55.0,53.0,29.83,West,267,1.0,7.0,93,0.07,,---,0.17,VWS V14.00,2013-07-28 12:51:00,
2013-07-28 08:52:00,55.0,53.0,29.83,West,267,0.0,7.0,93,0.07,,---,0.17,VWS V14.00,2013-07-28 12:52:00,
2013-07-28 08:53:00,55.0,53.0,29.83,West,267,1.0,7.0,93,0.07,,---,0.17,VWS V14.00,2013-07-28 12:53:00,
2013-07-28 08:55:00,55.0,53.0,29.84,West,268,0.0,7.0,93,0.07,,---,0.17,VWS V14.00,2013-07-28 12:55:00,
2013-07-28 08:57:00,55.0,53.0,29.83,West,268,2.0,7.0,93,0.07,,---,0.17,VWS V14.00,2013-07-28 12:57:00,
2013-07-28 08:58:00,55.0,53.0,29.83,West,268,0.0,7.0,93,0.07,,---,0.17,VWS V14.00,2013-07-28 12:58:00,
2013-07-28 09:00:00,54.9,52.6,29.84,West,268,2.0,7.0,92,0.07,,---,0.17,VWS V14.00,2013-07-28 13:00:00,
2013-07-28 09:02:00,54.9,52.6,29.84,West,269,0.0,5.0,92,0.04,,---,0.17,VWS V14.00,2013-07-28 13:02:00,
2013-07-28 09:04:00,54.9,52.9,29.84,West,270,1.0,5.0,93,0.04,,---,0.17,VWS V14.00,2013-07-28 13:04:00,
2013-07-28 09:06:00,54.9,52.9,29.84,West,270,0.0,5.0,93,0.04,,---,0.17,VWS V14.00,2013-07-28 13:06:00,
2013-07-28 09:07:00,54.9,52.9,29.84,West,271,0.0,5.0,93,0.04,,---,0.17,VWS V14.00,2013-07-28 13:07:00,
2013-07-28 09:09:00,54.9,52.9,29.84,West,271,0.0,5.0,93,0.05,,---,0.18,VWS V14.00,2013-07-28 13:09:00,
2013-07-28 09:13:00,54.8,52.8,29.84,West,271,0.0,5.0,93,0.07,,---,0.20,VWS V14.00,2013-07-28 13:13:00,
2013-07-28 09:15:00,54.8,52.8,29.84,West,271,2.0,5.0,93,0.08,,---,0.21,VWS V14.00,2013-07-28 13:15:00,
2013-07-28 09:16:00,54.8,52.8,29.84,West,271,4.0,5.0,93,0.08,,---,0.21,VWS V14.00,2013-07-28 13:16:00,
2013-07-28 09:18:00,54.8,52.8,29.84,West,271,1.0,5.0,93,0.09,,---,0.22,VWS V14.00,2013-07-28 13:18:00,
2013-07-28 09:20:00,54.8,52.8,29.84,West,271,0.0,5.0,93,0.11,,---,0.24,VWS V14.00,2013-07-28 13:20:00,
2013-07-28 09:21:00,54.8,52.8,29.84,West,268,0.0,5.0,93,0.11,,---,0.24,VWS V14.00,2013-07-28 13:21:00,
2013-07-28 09:24:00,54.7,52.7,29.84,West,268,3.0,6.0,93,0.12,,---,0.25,VWS V14.00,2013-07-28 13:24:00,
2013-07-28 09:26:00,54.6,52.6,29.84,West,268,2.0,6.0,93,0.14,,---,0.27,VWS V14.00,2013-07-28 13:26:00,
2013-07-28 09:28:00,54.7,52.7,29.84,West,268,2.0,6.0,93,0.15,,---,0.28,VWS V14.00,2013-07-28 13:28:00,
2013-07-28 09:29:00,54.7,52.7,29.84,West,268,2.0,6.0,93,0.16,,---,0.29,VWS V14.00,2013-07-28 13:29:00,
2013-07-28 09:31:00,54.7,52.7,29.84,West,268,1.0,6.0,93,0.16,,---,0.29,VWS V14.00,2013-07-28 13:31:00,
2013-07-28 09:33:00,54.7,52.7,29.84,West,268,3.0,5.0,93,0.13,,---,0.29,VWS V14.00,2013-07-28 13:33:00,
2013-07-28 09:34:00,54.7,52.7,29.84,West,269,4.0,7.0,93,0.14,,---,0.30,VWS V14.00,2013-07-28 13:34:00,
2013-07-28 09:38:00,54.7,52.7,29.84,West,265,4.0,7.0,93,0.16,,---,0.32,VWS V14.00,2013-07-28 13:38:00,
2013-07-28 09:39:00,54.7,52.7,29.84,West,265,3.0,7.0,93,0.16,,---,0.32,VWS V14.00,2013-07-28 13:39:00,
2013-07-28 09:40:00,54.6,52.6,29.84,West,267,2.0,7.0,93,0.16,,---,0.32,VWS V14.00,2013-07-28 13:40:00,
2013-07-28 09:43:00,54.6,52.9,29.84,West,274,1.0,7.0,94,0.17,,---,0.33,VWS V14.00,2013-07-28 13:43:00,
2013-07-28 09:44:00,54.6,52.9,29.84,West,274,5.0,7.0,94,0.17,,---,0.33,VWS V14.00,2013-07-28 13:44:00,
2013-07-28 09:45:00,54.6,52.9,29.84,West,268,7.0,10.0,94,0.17,,---,0.33,VWS V14.00,2013-07-28 13:45:00,
2013-07-28 09:48:00,54.6,52.9,29.85,West,268,0.0,10.0,94,0.18,,---,0.34,VWS V14.00,2013-07-28 13:48:00,
2013-07-28 09:50:00,54.6,52.6,29.84,West,268,0.0,10.0,93,0.19,,---,0.35,VWS V14.00,2013-07-28 13:50:00,
2013-07-28 09:51:00,54.6,52.6,29.84,West,260,5.0,10.0,93,0.19,,---,0.35,VWS V14.00,2013-07-28 13:51:00,
2013-07-28 09:53:00,54.7,52.7,29.84,West,264,3.0,10.0,93,0.19,,---,0.35,VWS V14.00,2013-07-28 13:53:00,
2013-07-28 09:55:00,54.7,53.0,29.84,West,264,2.0,10.0,94,0.19,,---,0.35,VWS V14.00,2013-07-28 13:55:00,
2013-07-28 09:56:00,54.8,53.1,29.84,West,264,2.0,10.0,94,0.19,,---,0.35,VWS V14.00,2013-07-28 13:56:00,
2013-07-28 09:58:00,54.8,53.1,29.84,West,264,5.0,10.0,94,0.19,,---,0.35,VWS V14.00,2013-07-28 13:58:00,
2013-07-28 10:01:00,54.9,53.2,29.84,West,263,2.0,10.0,94,0.19,,---,0.35,VWS V14.00,2013-07-28 14:01:00,
2013-07-28 10:02:00,55.0,53.3,29.84,West,263,3.0,6.0,94,0.18,,---,0.35,VWS V14.00,2013-07-28 14:02:00,
2013-07-28 10:03:00,55.0,53.3,29.84,West,264,1.0,6.0,94,0.18,,---,0.35,VWS V14.00,2013-07-28 14:03:00,
2013-07-28 10:04:00,55.1,53.4,29.84,West,263,5.0,6.0,94,0.18,,---,0.35,VWS V14.00,2013-07-28 14:04:00,
2013-07-28 10:08:00,55.1,53.4,29.84,WSW,250,6.0,10.0,94,0.18,,---,0.35,VWS V14.00,2013-07-28 14:08:00,
2013-07-28 10:09:00,55.1,53.4,29.84,WSW,252,5.0,10.0,94,0.18,,---,0.35,VWS V14.00,2013-07-28 14:09:00,
2013-07-28 10:10:00,55.1,53.4,29.84,WSW,245,0.0,10.0,94,0.18,,---,0.35,VWS V14.00,2013-07-28 14:10:00,
2013-07-28 10:14:00,55.0,53.3,29.85,WSW,246,3.0,10.0,94,0.18,,---,0.35,VWS V14.00,2013-07-28 14:14:00,
2013-07-28 10:15:00,55.1,53.4,29.84,WSW,247,3.0,10.0,94,0.18,,---,0.35,VWS V14.00,2013-07-28 14:15:00,
2013-07-28 10:18:00,55.2,53.5,29.85,WSW,254,2.0,10.0,94,0.18,,---,0.35,VWS V14.00,2013-07-28 14:18:00,
2013-07-28 10:19:00,55.2,53.5,29.85,WSW,255,0.0,10.0,94,0.18,,---,0.35,VWS V14.00,2013-07-28 14:19:00,
2013-07-28 10:20:00,55.2,53.5,29.85,WSW,252,6.0,10.0,94,0.18,,---,0.35,VWS V14.00,2013-07-28 14:20:00,
2013-07-28 10:21:00,55.2,53.5,29.85,SW,226,0.0,10.0,94,0.18,,---,0.35,VWS V14.00,2013-07-28 14:21:00,
2013-07-28 10:23:00,55.1,53.4,29.84,SW,233,2.0,10.0,94,0.18,,---,0.35,VWS V14.00,2013-07-28 14:23:00,
2013-07-28 10:26:00,55.2,53.5,29.84,SW,226,3.0,10.0,94,0.18,,---,0.35,VWS V14.00,2013-07-28 14:26:00,
2013-07-28 10:27:00,55.2,53.5,29.85,SW,226,3.0,10.0,94,0.18,,---,0.35,VWS V14.00,2013-07-28 14:27:00,
2013-07-28 10:28:00,55.1,53.4,29.85,SW,234,4.0,10.0,94,0.19,,---,0.36,VWS V14.00,2013-07-28 14:28:00,
2013-07-28 10:32:00,55.2,53.5,29.85,SW,229,0.0,0.0,94,0.07,,---,0.36,VWS V14.00,2013-07-28 14:32:00,
2013-07-28 10:33:00,55.3,53.6,29.85,SW,229,0.0,0.0,94,0.07,,---,0.36,VWS V14.00,2013-07-28 14:33:00,
2013-07-28 10:34:00,55.3,53.6,29.85,SW,230,3.0,4.0,94,0.07,,---,0.36,VWS V14.00,2013-07-28 14:34:00,
2013-07-28 10:38:00,55.5,53.8,29.84,SW,231,4.0,5.0,94,0.07,,---,0.36,VWS V14.00,2013-07-28 14:38:00,
2013-07-28 10:39:00,55.6,53.9,29.84,SW,232,3.0,5.0,94,0.07,,---,0.36,VWS V14.00,2013-07-28 14:39:00,
2013-07-28 10:40:00,55.6,53.9,29.84,SW,232,0.0,5.0,94,0.07,,---,0.36,VWS V14.00,2013-07-28 14:40:00,
2013-07-28 10:41:00,55.6,53.9,29.84,SW,234,3.0,5.0,94,0.07,,---,0.36,VWS V14.00,2013-07-28 14:41:00,
2013-07-28 10:44:00,55.9,54.2,29.84,WSW,247,5.0,6.0,94,0.07,,---,0.36,VWS V14.00,2013-07-28 14:44:00,
2013-07-28 10:46:00,55.9,54.2,29.84,West,263,2.0,6.0,94,0.07,,---,0.36,VWS V14.00,2013-07-28 14:46:00,
2013-07-28 10:48:00,56.1,54.4,29.84,West,261,2.0,6.0,94,0.07,,---,0.36,VWS V14.00,2013-07-28 14:48:00,
2013-07-28 10:50:00,56.2,54.5,29.84,West,261,0.0,6.0,94,0.07,,---,0.36,VWS V14.00,2013-07-28 14:50:00,
2013-07-28 10:51:00,56.3,54.6,29.84,West,261,5.0,6.0,94,0.07,,---,0.36,VWS V14.00,2013-07-28 14:51:00,
2013-07-28 10:52:00,56.4,54.7,29.84,West,263,3.0,6.0,94,0.07,,---,0.36,VWS V14.00,2013-07-28 14:52:00,
2013-07-28 10:54:00,56.4,54.7,29.84,West,263,5.0,7.0,94,0.07,,---,0.36,VWS V14.00,2013-07-28 14:54:00,
2013-07-28 10:56:00,56.6,54.9,29.84,WSW,247,0.0,7.0,94,0.07,,---,0.36,VWS V14.00,2013-07-28 14:56:00,
2013-07-28 10:57:00,56.7,55.0,29.84,WSW,247,0.0,7.0,94,0.07,,---,0.36,VWS V14.00,2013-07-28 14:57:00,
2013-07-28 10:59:00,56.8,55.1,29.84,West,264,3.0,7.0,94,0.07,,---,0.36,VWS V14.00,2013-07-28 14:59:00,
2013-07-28 11:00:00,56.8,55.1,29.84,West,259,4.0,10.0,94,0.07,,---,0.36,VWS V14.00,2013-07-28 15:00:00,
2013-07-28 11:02:00,57.1,55.4,29.84,WSW,257,6.0,6.0,94,0.01,,---,0.36,VWS V14.00,2013-07-28 15:02:00,
2013-07-28 11:05:00,57.3,55.6,29.84,West,269,4.0,12.0,94,0.01,,---,0.36,VWS V14.00,2013-07-28 15:05:00,
2013-07-28 11:06:00,57.4,55.7,29.84,WSW,250,9.0,12.0,94,0.01,,---,0.36,VWS V14.00,2013-07-28 15:06:00,
2013-07-28 11:07:00,57.5,55.8,29.84,West,269,5.0,12.0,94,0.01,,---,0.36,VWS V14.00,2013-07-28 15:07:00,
2013-07-28 11:08:00,57.5,55.8,29.84,West,270,4.0,12.0,94,0.01,,---,0.36,VWS V14.00,2013-07-28 15:08:00,
2013-07-28 11:10:00,57.6,55.6,29.84,West,262,7.0,12.0,93,0.01,,---,0.36,VWS V14.00,2013-07-28 15:10:00,
2013-07-28 11:11:00,57.7,55.7,29.84,West,265,5.0,12.0,93,0.01,,---,0.36,VWS V14.00,2013-07-28 15:11:00,
2013-07-28 11:12:00,57.9,55.9,29.84,West,266,4.0,12.0,93,0.01,,---,0.36,VWS V14.00,2013-07-28 15:12:00,
2013-07-28 11:13:00,58.0,56.0,29.84,West,266,2.0,12.0,93,0.01,,---,0.36,VWS V14.00,2013-07-28 15:13:00,
2013-07-28 11:15:00,58.1,56.1,29.84,WNW,284,2.0,12.0,93,0.01,,---,0.36,VWS V14.00,2013-07-28 15:15:00,
2013-07-28 11:16:00,58.2,55.9,29.84,SW,234,3.0,12.0,92,0.01,,---,0.36,VWS V14.00,2013-07-28 15:16:00,
2013-07-28 11:17:00,58.2,55.9,29.84,SW,219,3.0,12.0,92,0.01,,---,0.36,VWS V14.00,2013-07-28 15:17:00,
2013-07-28 11:18:00,58.2,55.9,29.84,SW,221,1.0,12.0,92,0.01,,---,0.36,VWS V14.00,2013-07-28 15:18:00,
2013-07-28 11:22:00,58.2,55.6,29.84,West,275,3.0,12.0,91,0.01,,---,0.36,VWS V14.00,2013-07-28 15:22:00,
2013-07-28 11:23:00,58.3,55.7,29.84,West,276,1.0,12.0,91,0.01,,---,0.36,VWS V14.00,2013-07-28 15:23:00,
2013-07-28 11:24:00,58.4,55.8,29.84,West,274,3.0,12.0,91,0.01,,---,0.36,VWS V14.00,2013-07-28 15:24:00,
2013-07-28 11:27:00,58.4,55.8,29.84,West,269,0.0,12.0,91,0.01,,---,0.36,VWS V14.00,2013-07-28 15:27:00,
2013-07-28 11:28:00,58.5,55.9,29.84,West,267,0.0,12.0,91,0.01,,---,0.36,VWS V14.00,2013-07-28 15:28:00,
2013-07-28 11:29:00,58.5,55.9,29.84,WSW,250,7.0,12.0,91,0.01,,---,0.36,VWS V14.00,2013-07-28 15:29:00,
2013-07-28 11:30:00,58.5,55.6,29.84,WSW,252,7.0,12.0,90,0.01,,---,0.36,VWS V14.00,2013-07-28 15:30:00,
2013-07-28 11:32:00,58.4,55.5,29.84,SW,214,4.0,7.0,90,0.00,,---,0.36,VWS V14.00,2013-07-28 15:32:00,
2013-07-28 11:33:00,58.3,55.4,29.84,SSW,199,0.0,7.0,90,0.00,,---,0.36,VWS V14.00,2013-07-28 15:33:00,
2013-07-28 11:34:00,58.3,55.4,29.84,WSW,242,0.0,7.0,90,0.00,,---,0.36,VWS V14.00,2013-07-28 15:34:00,
2013-07-28 11:35:00,58.3,55.4,29.84,WSW,244,4.0,7.0,90,0.00,,---,0.36,VWS V14.00,2013-07-28 15:35:00,
2013-07-28 11:37:00,58.3,55.4,29.84,West,261,8.0,9.0,90,0.00,,---,0.36,VWS V14.00,2013-07-28 15:37:00,
2013-07-28 11:40:00,58.1,55.2,29.84,WSW,252,3.0,12.0,90,0.01,,---,0.37,VWS V14.00,2013-07-28 15:40:00,
2013-07-28 11:41:00,58.1,55.2,29.84,SW,236,3.0,12.0,90,0.01,,---,0.37,VWS V14.00,2013-07-28 15:41:00,
2013-07-28 11:43:00,57.8,54.9,29.84,WSW,242,2.0,12.0,90,0.01,,---,0.37,VWS V14.00,2013-07-28 15:43:00,
2013-07-28 11:45:00,57.5,54.6,29.84,WSW,238,5.0,12.0,90,0.01,,---,0.37,VWS V14.00,2013-07-28 15:45:00,
2013-07-28 11:46:00,57.5,54.6,29.84,West,271,1.0,12.0,90,0.01,,---,0.37,VWS V14.00,2013-07-28 15:46:00,
2013-07-28 11:47:00,57.5,54.9,29.84,WSW,242,0.0,12.0,91,0.01,,---,0.37,VWS V14.00,2013-07-28 15:47:00,
2013-07-28 11:48:00,57.5,54.9,29.84,SW,217,2.0,12.0,91,0.01,,---,0.37,VWS V14.00,2013-07-28 15:48:00,
2013-07-28 11:51:00,57.8,55.2,29.84,WSW,256,0.0,12.0,91,0.01,,---,0.37,VWS V14.00,2013-07-28 15:51:00,
2013-07-28 11:52:00,58.2,55.9,29.84,WSW,254,1.0,12.0,92,0.01,,---,0.37,VWS V14.00,2013-07-28 15:52:00,
2013-07-28 11:56:00,59.0,56.7,29.84,WSW,256,0.0,12.0,92,0.01,,---,0.37,VWS V14.00,2013-07-28 15:56:00,
2013-07-28 11:57:00,59.0,57.0,29.84,WSW,242,0.0,12.0,93,0.01,,---,0.37,VWS V14.00,2013-07-28 15:57:00,
2013-07-28 11:58:00,59.1,57.1,29.84,WSW,243,0.0,12.0,93,0.01,,---,0.37,VWS V14.00,2013-07-28 15:58:00,
2013-07-28 11:59:00,59.7,57.7,29.84,West,263,2.0,12.0,93,0.01,,---,0.37,VWS V14.00,2013-07-28 15:59:00,
2013-07-28 12:02:00,59.9,57.6,29.84,WSW,257,0.0,3.0,92,0.01,,---,0.37,VWS V14.00,2013-07-28 16:02:00,
2013-07-28 12:03:00,59.9,57.6,29.84,West,259,2.0,3.0,92,0.01,,---,0.37,VWS V14.00,2013-07-28 16:03:00,
2013-07-28 12:06:00,59.7,57.1,29.84,WSW,258,5.0,7.0,91,0.01,,---,0.37,VWS V14.00,2013-07-28 16:06:00,
2013-07-28 12:07:00,59.6,57.0,29.84,WSW,256,1.0,7.0,91,0.01,,---,0.37,VWS V14.00,2013-07-28 16:07:00,
2013-07-28 12:08:00,59.5,56.9,29.84,WSW,257,0.0,7.0,91,0.01,,---,0.37,VWS V14.00,2013-07-28 16:08:00,
2013-07-28 12:10:00,59.6,57.0,29.84,West,281,2.0,9.0,91,0.01,,---,0.37,VWS V14.00,2013-07-28 16:10:00,
2013-07-28 12:13:00,59.4,56.5,29.84,West,273,3.0,9.0,90,0.02,,---,0.38,VWS V14.00,2013-07-28 16:13:00,
2013-07-28 12:15:00,59.1,56.2,29.85,West,273,2.0,9.0,90,0.02,,---,0.38,VWS V14.00,2013-07-28 16:15:00,
2013-07-28 12:16:00,59.0,56.1,29.85,West,276,7.0,9.0,90,0.02,,---,0.38,VWS V14.00,2013-07-28 16:16:00,
2013-07-28 12:19:00,59.0,56.1,29.85,West,277,11.0,11.0,90,0.03,,---,0.39,VWS V14.00,2013-07-28 16:19:00,
2013-07-28 12:21:00,58.5,55.6,29.85,West,273,1.0,13.0,90,0.04,,---,0.40,VWS V14.00,2013-07-28 16:21:00,
2013-07-28 12:22:00,58.4,55.5,29.85,West,271,2.0,13.0,90,0.05,,---,0.41,VWS V14.00,2013-07-28 16:22:00,
2013-07-28 12:24:00,58.2,55.3,29.85,West,276,1.0,13.0,90,0.06,,---,0.42,VWS V14.00,2013-07-28 16:24:00,
2013-07-28 12:25:00,58.1,55.2,29.85,West,276,0.0,13.0,90,0.06,,---,0.42,VWS V14.00,2013-07-28 16:25:00,
2013-07-28 12:26:00,58.0,55.1,29.85,West,276,0.0,13.0,90,0.06,,---,0.42,VWS V14.00,2013-07-28 16:26:00,
2013-07-28 12:27:00,57.9,55.0,29.85,SW,232,1.0,13.0,90,0.07,,---,0.43,VWS V14.00,2013-07-28 16:27:00,
2013-07-28 12:28:00,57.8,54.9,29.85,WSW,242,4.0,13.0,90,0.07,,---,0.43,VWS V14.00,2013-07-28 16:28:00,
2013-07-28 12:29:00,57.7,55.1,29.85,WSW,243,1.0,13.0,91,0.07,,---,0.43,VWS V14.00,2013-07-28 16:29:00,
2013-07-28 12:31:00,57.7,55.1,29.85,WSW,252,4.0,13.0,91,0.07,,---,0.43,VWS V14.00,2013-07-28 16:31:00,
2013-07-28 12:34:00,57.5,54.9,29.85,WSW,239,5.0,12.0,91,0.07,,---,0.43,VWS V14.00,2013-07-28 16:34:00,
2013-07-28 12:37:00,57.5,54.9,29.85,WSW,247,6.0,12.0,91,0.07,,---,0.43,VWS V14.00,2013-07-28 16:37:00,
2013-07-28 12:39:00,57.6,55.0,29.85,WSW,250,4.0,12.0,91,0.07,,---,0.43,VWS V14.00,2013-07-28 16:39:00,
2013-07-28 12:40:00,57.7,55.1,29.85,West,260,2.0,12.0,91,0.07,,---,0.43,VWS V14.00,2013-07-28 16:40:00,
2013-07-28 12:43:00,57.8,55.2,29.85,West,259,4.0,12.0,91,0.07,,---,0.43,VWS V14.00,2013-07-28 16:43:00,
2013-07-28 12:44:00,57.8,55.2,29.85,West,261,4.0,12.0,91,0.07,,---,0.43,VWS V14.00,2013-07-28 16:44:00,
2013-07-28 12:45:00,57.8,55.2,29.85,WSW,254,3.0,12.0,91,0.07,,---,0.43,VWS V14.00,2013-07-28 16:45:00,
2013-07-28 12:49:00,58.2,55.9,29.85,West,265,9.0,12.0,92,0.07,,---,0.43,VWS V14.00,2013-07-28 16:49:00,
2013-07-28 12:50:00,58.3,56.0,29.85,West,271,5.0,12.0,92,0.07,,---,0.43,VWS V14.00,2013-07-28 16:50:00,
2013-07-28 12:51:00,58.4,56.1,29.85,West,278,11.0,12.0,92,0.07,,---,0.43,VWS V14.00,2013-07-28 16:51:00,
2013-07-28 12:53:00,58.5,56.2,29.85,West,275,5.0,13.0,92,0.07,,---,0.43,VWS V14.00,2013-07-28 16:53:00,
2013-07-28 12:55:00,59.0,56.7,29.85,West,279,6.0,13.0,92,0.07,,---,0.43,VWS V14.00,2013-07-28 16:55:00,
2013-07-28 12:57:00,59.0,56.7,29.85,West,279,2.0,13.0,92,0.07,,---,0.43,VWS V14.00,2013-07-28 16:57:00,
2013-07-28 12:59:00,59.6,57.3,29.85,West,280,7.0,13.0,92,0.07,,---,0.43,VWS V14.00,2013-07-28 16:59:00,
2013-07-28 13:00:00,59.7,57.4,29.85,West,267,7.0,13.0,92,0.07,,---,0.43,VWS V14.00,2013-07-28 17:00:00,
2013-07-28 13:01:00,60.0,57.7,29.85,West,275,9.0,16.0,92,0.06,,---,0.43,VWS V14.00,2013-07-28 17:01:00,
2013-07-28 13:02:00,60.0,57.7,29.85,WSW,250,10.0,16.0,92,0.06,,---,0.43,VWS V14.00,2013-07-28 17:02:00,
2013-07-28 13:03:00,60.0,57.4,29.85,West,265,9.0,18.0,91,0.06,,---,0.43,VWS V14.00,2013-07-28 17:03:00,
2013-07-28 13:05:00,59.8,56.9,29.85,WNW,284,10.0,18.0,90,0.06,,---,0.43,VWS V14.00,2013-07-28 17:05:00,
2013-07-28 13:07:00,59.7,56.8,29.85,West,279,2.0,18.0,90,0.06,,---,0.43,VWS V14.00,2013-07-28 17:07:00,
2013-07-28 13:08:00,59.7,56.8,29.85,West,264,5.0,18.0,90,0.06,,---,0.43,VWS V14.00,2013-07-28 17:08:00,
2013-07-28 13:09:00,59.6,56.7,29.85,WNW,294,5.0,18.0,90,0.06,,---,0.43,VWS V14.00,2013-07-28 17:09:00,
2013-07-28 13:12:00,59.6,56.4,29.86,West,277,0.0,18.0,89,0.06,,---,0.43,VWS V14.00,2013-07-28 17:12:00,
2013-07-28 13:13:00,59.6,56.4,29.85,West,271,1.0,18.0,89,0.06,,---,0.43,VWS V14.00,2013-07-28 17:13:00,
2013-07-28 13:15:00,59.5,56.3,29.85,West,268,0.0,18.0,89,0.06,,---,0.43,VWS V14.00,2013-07-28 17:15:00,
2013-07-28 13:17:00,59.6,56.4,29.85,West,275,6.0,18.0,89,0.06,,---,0.43,VWS V14.00,2013-07-28 17:17:00,
2013-07-28 13:18:00,59.6,56.0,29.85,West,267,7.0,18.0,88,0.06,,---,0.43,VWS V14.00,2013-07-28 17:18:00,
2013-07-28 13:19:00,59.6,56.0,29.85,West,275,5.0,18.0,88,0.06,,---,0.43,VWS V14.00,2013-07-28 17:19:00,
2013-07-28 13:20:00,59.8,56.2,29.85,West,275,6.0,18.0,88,0.06,,---,0.43,VWS V14.00,2013-07-28 17:20:00,
2013-07-28 13:22:00,60.3,56.7,29.85,WNW,292,3.0,18.0,88,0.06,,---,0.43,VWS V14.00,2013-07-28 17:22:00,
2013-07-28 13:23:00,60.4,56.8,29.85,WNW,287,4.0,18.0,88,0.06,,---,0.43,VWS V14.00,2013-07-28 17:23:00,
2013-07-28 13:24:00,60.7,57.1,29.85,West,279,9.0,18.0,88,0.06,,---,0.43,VWS V14.00,2013-07-28 17:24:00,
2013-07-28 13:25:00,61.0,57.4,29.85,WNW,290,10.0,18.0,88,0.06,,---,0.43,VWS V14.00,2013-07-28 17:25:00,
2013-07-28 13:27:00,61.3,57.4,29.85,WNW,290,3.0,19.0,87,0.06,,---,0.43,VWS V14.00,2013-07-28 17:27:00,
2013-07-28 13:28:00,61.3,57.1,29.85,NW,319,0.0,19.0,86,0.06,,---,0.43,VWS V14.00,2013-07-28 17:28:00,
2013-07-28 13:30:00,61.4,56.9,29.85,West,272,0.0,19.0,85,0.06,,---,0.43,VWS V14.00,2013-07-28 17:30:00,
2013-07-28 13:31:00,61.5,57.0,29.85,WNW,296,3.0,5.0,85,0.00,,---,0.43,VWS V14.00,2013-07-28 17:31:00,
2013-07-28 13:33:00,61.6,57.0,29.85,NW,321,4.0,11.0,85,0.00,,---,0.43,VWS V14.00,2013-07-28 17:33:00,
2013-07-28 13:34:00,61.6,56.7,29.85,WNW,292,2.0,11.0,84,0.00,,---,0.43,VWS V14.00,2013-07-28 17:34:00,
2013-07-28 13:35:00,61.6,56.7,29.86,West,267,0.0,11.0,84,0.00,,---,0.43,VWS V14.00,2013-07-28 17:35:00,
2013-07-28 13:36:00,61.6,56.4,29.86,West,277,4.0,11.0,83,0.00,,---,0.43,VWS V14.00,2013-07-28 17:36:00,
2013-07-28 13:38:00,61.6,56.1,29.86,West,269,0.0,11.0,82,0.00,,---,0.43,VWS V14.00,2013-07-28 17:38:00,
2013-07-28 13:39:00,61.6,56.1,29.86,WNW,287,7.0,11.0,82,0.00,,---,0.43,VWS V14.00,2013-07-28 17:39:00,
2013-07-28 13:40:00,61.6,56.1,29.86,West,279,2.0,11.0,82,0.00,,---,0.43,VWS V14.00,2013-07-28 17:40:00,
2013-07-28 13:42:00,61.6,56.1,29.86,West,271,0.0,11.0,82,0.00,,---,0.43,VWS V14.00,2013-07-28 17:42:00,
2013-07-28 13:43:00,61.7,56.2,29.86,NW,309,9.0,13.0,82,0.00,,---,0.43,VWS V14.00,2013-07-28 17:43:00,
2013-07-28 13:44:00,61.6,55.7,29.86,NW,323,6.0,13.0,81,0.00,,---,0.43,VWS V14.00,2013-07-28 17:44:00,
2013-07-28 13:48:00,61.7,55.8,29.86,WNW,292,2.0,15.0,81,0.00,,---,0.43,VWS V14.00,2013-07-28 17:48:00,
2013-07-28 13:49:00,61.7,55.8,29.86,NW,313,4.0,15.0,81,0.00,,---,0.43,VWS V14.00,2013-07-28 17:49:00,
2013-07-28 13:50:00,61.8,55.9,29.86,WNW,294,1.0,15.0,81,0.00,,---,0.43,VWS V14.00,2013-07-28 17:50:00,
2013-07-28 13:51:00,61.8,55.9,29.86,WNW,295,1.0,15.0,81,0.00,,---,0.43,VWS V14.00,2013-07-28 17:51:00,
2013-07-28 13:54:00,62.2,56.3,29.85,NW,305,3.0,15.0,81,0.00,,---,0.43,VWS V14.00,2013-07-28 17:54:00,
2013-07-28 13:55:00,62.2,56.3,29.85,NNW,327,3.0,15.0,81,0.00,,---,0.43,VWS V14.00,2013-07-28 17:55:00,
2013-07-28 13:56:00,62.2,56.0,29.86,WNW,296,1.0,15.0,80,0.00,,---,0.43,VWS V14.00,2013-07-28 17:56:00,
2013-07-28 13:57:00,62.2,55.6,29.86,NW,310,3.0,15.0,79,0.00,,---,0.43,VWS V14.00,2013-07-28 17:57:00,
2013-07-28 14:00:00,62.3,55.7,29.86,WNW,292,3.0,15.0,79,0.00,,---,0.43,VWS V14.00,2013-07-28 18:00:00,
2013-07-28 14:01:00,62.4,55.5,29.86,NNW,333,0.0,15.0,78,0.00,,---,0.43,VWS V14.00,2013-07-28 18:01:00,
2013-07-28 14:03:00,62.5,54.8,29.86,WNW,298,0.0,7.0,76,0.00,,---,0.43,VWS V14.00,2013-07-28 18:03:00,
2013-07-28 14:06:00,62.9,55.2,29.86,NW,309,0.0,7.0,76,0.00,,---,0.43,VWS V14.00,2013-07-28 18:06:00,
2013-07-28 14:08:00,63.2,54.8,29.86,NW,315,6.0,10.0,74,0.00,,---,0.43,VWS V14.00,2013-07-28 18:08:00,
2013-07-28 14:09:00,63.4,55.0,29.86,WNW,290,10.0,10.0,74,0.00,,---,0.43,VWS V14.00,2013-07-28 18:09:00,
2013-07-28 14:10:00,63.6,55.2,29.86,West,272,1.0,11.0,74,0.00,,---,0.43,VWS V14.00,2013-07-28 18:10:00,
2013-07-28 14:11:00,63.7,54.9,29.86,WNW,300,0.0,11.0,73,0.00,,---,0.43,VWS V14.00,2013-07-28 18:11:00,
2013-07-28 14:14:00,63.9,54.7,29.86,NW,320,2.0,19.0,72,0.00,,---,0.43,VWS V14.00,2013-07-28 18:14:00,
2013-07-28 14:15:00,63.8,54.2,29.86,West,271,0.0,19.0,71,0.00,,---,0.43,VWS V14.00,2013-07-28 18:15:00,
2013-07-28 14:16:00,63.8,54.2,29.86,West,273,15.0,19.0,71,0.00,,---,0.43,VWS V14.00,2013-07-28 18:16:00,
2013-07-28 14:17:00,63.8,54.2,29.86,West,269,12.0,19.0,71,0.00,,---,0.43,VWS V14.00,2013-07-28 18:17:00,
2013-07-28 14:20:00,63.6,54.0,29.86,West,265,0.0,19.0,71,0.00,,---,0.43,VWS V14.00,2013-07-28 18:20:00,
2013-07-28 14:22:00,63.8,54.2,29.86,NW,317,13.0,19.0,71,0.00,,---,0.43,VWS V14.00,2013-07-28 18:22:00,
2013-07-28 14:23:00,63.9,53.9,29.86,West,271,5.0,19.0,70,0.00,,---,0.43,VWS V14.00,2013-07-28 18:23:00,
2013-07-28 14:24:00,63.9,53.9,29.86,NW,321,15.0,19.0,70,0.00,,---,0.43,VWS V14.00,2013-07-28 18:24:00,
2013-07-28 14:25:00,63.9,53.9,29.86,NW,324,13.0,20.0,70,0.00,,---,0.43,VWS V14.00,2013-07-28 18:25:00,
2013-07-28 14:28:00,63.9,54.3,29.85,NW,311,7.0,20.0,71,0.00,,---,0.43,VWS V14.00,2013-07-28 18:28:00,
2013-07-28 14:30:00,64.1,54.1,29.85,WNW,297,13.0,20.0,70,0.00,,---,0.43,VWS V14.00,2013-07-28 18:30:00,
2013-07-28 14:31:00,64.2,53.8,29.85,NW,317,6.0,20.0,69,0.00,,---,0.43,VWS V14.00,2013-07-28 18:31:00,
2013-07-28 14:35:00,64.6,53.8,29.85,West,275,5.0,16.0,68,0.00,,---,0.43,VWS V14.00,2013-07-28 18:35:00,
2013-07-28 14:36:00,64.9,54.1,29.85,West,273,4.0,16.0,68,0.00,,---,0.43,VWS V14.00,2013-07-28 18:36:00,
2013-07-28 14:37:00,65.0,54.2,29.85,West,276,5.0,16.0,68,0.00,,---,0.43,VWS V14.00,2013-07-28 18:37:00,
2013-07-28 14:38:00,65.2,54.0,29.85,WSW,252,2.0,17.0,67,0.00,,---,0.43,VWS V14.00,2013-07-28 18:38:00,
2013-07-28 14:40:00,65.5,53.8,29.85,WNW,300,16.0,21.0,66,0.00,,---,0.43,VWS V14.00,2013-07-28 18:40:00,
2013-07-28 14:42:00,65.8,54.1,29.85,WNW,293,1.0,21.0,66,0.00,,---,0.43,VWS V14.00,2013-07-28 18:42:00,
2013-07-28 14:43:00,65.9,54.2,29.85,NW,325,11.0,21.0,66,0.00,,---,0.43,VWS V14.00,2013-07-28 18:43:00,
2013-07-28 14:46:00,66.3,54.2,29.85,West,273,0.0,21.0,65,0.00,,---,0.43,VWS V14.00,2013-07-28 18:46:00,
2013-07-28 14:47:00,66.5,54.4,29.85,WNW,288,1.0,21.0,65,0.00,,---,0.43,VWS V14.00,2013-07-28 18:47:00,
2013-07-28 14:48:00,66.5,54.4,29.85,NW,313,0.0,21.0,65,0.00,,---,0.43,VWS V14.00,2013-07-28 18:48:00,
2013-07-28 14:49:00,66.7,54.6,29.85,NNW,331,12.0,21.0,65,0.00,,---,0.43,VWS V14.00,2013-07-28 18:49:00,
2013-07-28 14:50:00,66.7,53.7,29.85,NW,325,4.0,21.0,63,0.00,,---,0.43,VWS V14.00,2013-07-28 18:50:00,
2013-07-28 14:53:00,66.5,53.5,29.86,NW,315,10.0,21.0,63,0.00,,---,0.43,VWS V14.00,2013-07-28 18:53:00,
2013-07-28 14:55:00,66.5,54.0,29.86,WNW,301,0.0,21.0,64,0.00,,---,0.43,VWS V14.00,2013-07-28 18:55:00,
2013-07-28 14:58:00,66.8,54.2,29.86,West,265,17.0,21.0,64,0.00,,---,0.43,VWS V14.00,2013-07-28 18:58:00,
2013-07-28 15:00:00,67.2,54.6,29.86,West,269,2.0,21.0,64,0.00,,---,0.43,VWS V14.00,2013-07-28 19:00:00,
2013-07-28 15:01:00,67.3,54.7,29.86,West,268,6.0,21.0,64,0.00,,---,0.43,VWS V14.00,2013-07-28 19:01:00,
2013-07-28 15:03:00,68.0,54.5,29.86,NNW,331,10.0,16.0,62,0.00,,---,0.43,VWS V14.00,2013-07-28 19:03:00,
2013-07-28 15:04:00,68.0,54.1,29.86,NW,318,7.0,16.0,61,0.00,,---,0.43,VWS V14.00,2013-07-28 19:04:00,
2013-07-28 15:05:00,68.0,54.1,29.86,WNW,289,4.0,16.0,61,0.00,,---,0.43,VWS V14.00,2013-07-28 19:05:00,
2013-07-28 15:06:00,68.0,54.1,29.86,NW,321,0.0,16.0,61,0.00,,---,0.43,VWS V14.00,2013-07-28 19:06:00,
2013-07-28 15:08:00,67.7,54.2,29.86,WNW,303,3.0,16.0,62,0.00,,---,0.43,VWS V14.00,2013-07-28 19:08:00,
2013-07-28 15:11:00,67.7,54.2,29.86,West,265,3.0,16.0,62,0.00,,---,0.43,VWS V14.00,2013-07-28 19:11:00,
2013-07-28 15:12:00,67.9,54.4,29.86,WNW,290,17.0,18.0,62,0.00,,---,0.43,VWS V14.00,2013-07-28 19:12:00,
2013-07-28 15:14:00,68.2,53.8,29.86,WNW,294,11.0,18.0,60,0.00,,---,0.43,VWS V14.00,2013-07-28 19:14:00,
2013-07-28 15:16:00,68.4,54.0,29.86,North,349,1.0,18.0,60,0.00,,---,0.43,VWS V14.00,2013-07-28 19:16:00,
2013-07-28 15:17:00,68.3,53.9,29.86,NNW,331,13.0,18.0,60,0.00,,---,0.43,VWS V14.00,2013-07-28 19:17:00,
2013-07-28 15:19:00,67.7,53.8,29.86,NW,313,14.0,18.0,61,0.00,,---,0.43,VWS V14.00,2013-07-28 19:19:00,
2013-07-28 15:22:00,67.2,53.3,29.86,NNW,340,10.0,18.0,61,0.00,,---,0.43,VWS V14.00,2013-07-28 19:22:00,
2013-07-28 15:23:00,67.0,53.6,29.86,NNW,331,13.0,19.0,62,0.00,,---,0.43,VWS V14.00,2013-07-28 19:23:00,
2013-07-28 15:24:00,66.9,53.5,29.86,WNW,302,9.0,19.0,62,0.00,,---,0.43,VWS V14.00,2013-07-28 19:24:00,
2013-07-28 15:25:00,66.9,53.5,29.86,NW,311,7.0,19.0,62,0.00,,---,0.43,VWS V14.00,2013-07-28 19:25:00,
2013-07-28 15:27:00,67.2,54.2,29.86,West,268,7.0,19.0,63,0.00,,---,0.43,VWS V14.00,2013-07-28 19:27:00,
2013-07-28 15:28:00,67.3,54.3,29.86,NW,314,14.0,19.0,63,0.00,,---,0.43,VWS V14.00,2013-07-28 19:28:00,
2013-07-28 15:29:00,67.4,54.4,29.86,West,278,13.0,19.0,63,0.00,,---,0.43,VWS V14.00,2013-07-28 19:29:00,
2013-07-28 15:31:00,67.6,53.7,29.86,WNW,295,20.0,20.0,61,0.00,,---,0.43,VWS V14.00,2013-07-28 19:31:00,
2013-07-28 15:32:00,67.6,53.2,29.86,WNW,296,13.0,20.0,60,0.00,,---,0.43,VWS V14.00,2013-07-28 19:32:00,
2013-07-28 15:33:00,67.5,53.1,29.86,WNW,292,12.0,20.0,60,0.00,,---,0.43,VWS V14.00,2013-07-28 19:33:00,
2013-07-28 15:36:00,67.0,53.1,29.86,West,274,0.0,20.0,61,0.00,,---,0.43,VWS V14.00,2013-07-28 19:36:00,
2013-07-28 15:37:00,67.0,53.6,29.86,West,273,5.0,20.0,62,0.00,,---,0.43,VWS V14.00,2013-07-28 19:37:00,
2013-07-28 15:40:00,67.2,53.8,29.86,West,279,7.0,20.0,62,0.00,,---,0.43,VWS V14.00,2013-07-28 19:40:00,
2013-07-28 15:41:00,67.4,53.9,29.86,West,265,5.0,20.0,62,0.00,,---,0.43,VWS V14.00,2013-07-28 19:41:00,
2013-07-28 15:43:00,67.5,54.0,29.86,WNW,284,12.0,20.0,62,0.00,,---,0.43,VWS V14.00,2013-07-28 19:43:00,
2013-07-28 15:45:00,67.8,54.3,29.86,NW,304,5.0,20.0,62,0.00,,---,0.43,VWS V14.00,2013-07-28 19:45:00,
2013-07-28 15:46:00,67.9,54.4,29.86,NW,306,12.0,20.0,62,0.00,,---,0.43,VWS V14.00,2013-07-28 19:46:00,
2013-07-28 15:47:00,67.9,54.0,29.86,WNW,294,10.0,20.0,61,0.00,,---,0.43,VWS V14.00,2013-07-28 19:47:00,
2013-07-28 15:49:00,67.8,53.9,29.87,North,349,14.0,20.0,61,0.00,,---,0.43,VWS V14.00,2013-07-28 19:49:00,
2013-07-28 15:50:00,67.4,53.5,29.87,NNW,330,9.0,20.0,61,0.00,,---,0.43,VWS V14.00,2013-07-28 19:50:00,
2013-07-28 15:52:00,67.0,53.6,29.87,NW,322,10.0,20.0,62,0.00,,---,0.43,VWS V14.00,2013-07-28 19:52:00,
2013-07-28 15:53:00,66.4,53.0,29.87,NNW,336,17.0,20.0,62,0.00,,---,0.43,VWS V14.00,2013-07-28 19:53:00,
2013-07-28 15:54:00,66.3,52.9,29.87,NNW,327,11.0,20.0,62,0.00,,---,0.43,VWS V14.00,2013-07-28 19:54:00,
2013-07-28 15:57:00,65.6,52.2,29.87,NW,311,11.0,20.0,62,0.00,,---,0.43,VWS V14.00,2013-07-28 19:57:00,
2013-07-28 15:58:00,65.6,52.7,29.87,West,279,7.0,20.0,63,0.00,,---,0.43,VWS V14.00,2013-07-28 19:58:00,
2013-07-28 15:59:00,65.8,52.9,29.87,NW,323,13.0,20.0,63,0.00,,---,0.43,VWS V14.00,2013-07-28 19:59:00,
2013-07-28 16:01:00,66.0,53.1,29.87,West,276,11.0,20.0,63,0.00,,---,0.43,VWS V14.00,2013-07-28 20:01:00,
2013-07-28 16:03:00,66.5,53.1,29.87,NW,321,15.0,15.0,62,0.00,,---,0.43,VWS V14.00,2013-07-28 20:03:00,
2013-07-28 16:04:00,66.7,52.8,29.87,NNW,330,10.0,18.0,61,0.00,,---,0.43,VWS V14.00,2013-07-28 20:04:00,
2013-07-28 16:06:00,67.0,53.1,29.87,West,281,18.0,21.0,61,0.00,,---,0.43,VWS V14.00,2013-07-28 20:06:00,
2013-07-28 16:08:00,67.1,53.2,29.88,West,281,8.0,21.0,61,0.00,,---,0.43,VWS V14.00,2013-07-28 20:08:00,
2013-07-28 16:09:00,67.2,53.3,29.88,West,268,10.0,21.0,61,0.00,,---,0.43,VWS V14.00,2013-07-28 20:09:00,
2013-07-28 16:10:00,67.2,53.3,29.88,NW,307,12.0,21.0,61,0.00,,---,0.43,VWS V14.00,2013-07-28 20:10:00,
2013-07-28 16:11:00,67.3,53.4,29.88,WNW,294,7.0,21.0,61,0.00,,---,0.43,VWS V14.00,2013-07-28 20:11:00,
2013-07-28 16:12:00,67.3,53.4,29.88,NW,322,10.0,21.0,61,0.00,,---,0.43,VWS V14.00,2013-07-28 20:12:00,
2013-07-28 16:14:00,67.5,53.6,29.87,NNW,328,7.0,21.0,61,0.00,,---,0.43,VWS V14.00,2013-07-28 20:14:00,
2013-07-28 16:15:00,67.4,53.0,29.87,NNW,333,7.0,21.0,60,0.00,,---,0.43,VWS V14.00,2013-07-28 20:15:00,
2013-07-28 16:17:00,67.4,53.0,29.88,WNW,302,8.0,21.0,60,0.00,,---,0.43,VWS V14.00,2013-07-28 20:17:00,
2013-07-28 16:18:00,67.4,53.5,29.88,West,269,4.0,21.0,61,0.00,,---,0.43,VWS V14.00,2013-07-28 20:18:00,
2013-07-28 16:21:00,67.6,53.2,29.87,WNW,286,14.0,21.0,60,0.00,,---,0.43,VWS V14.00,2013-07-28 20:21:00,
2013-07-28 16:24:00,67.6,52.8,29.87,NW,311,10.0,21.0,59,0.00,,---,0.43,VWS V14.00,2013-07-28 20:24:00,
2013-07-28 16:25:00,67.5,52.7,29.87,NW,304,10.0,21.0,59,0.00,,---,0.43,VWS V14.00,2013-07-28 20:25:00,
2013-07-28 16:26:00,67.4,52.6,29.88,WNW,286,5.0,21.0,59,0.00,,---,0.43,VWS V14.00,2013-07-28 20:26:00,
2013-07-28 16:29:00,67.4,52.6,29.88,NW,305,17.0,21.0,59,0.00,,---,0.43,VWS V14.00,2013-07-28 20:29:00,
2013-07-28 16:30:00,67.3,53.0,29.88,West,273,16.0,21.0,60,0.00,,---,0.43,VWS V14.00,2013-07-28 20:30:00,
2013-07-28 16:32:00,67.1,52.3,29.88,West,271,15.0,15.0,59,0.00,,---,0.43,VWS V14.00,2013-07-28 20:32:00,
2013-07-28 16:35:00,66.8,52.5,29.88,West,268,7.0,20.0,60,0.00,,---,0.43,VWS V14.00,2013-07-28 20:35:00,
2013-07-28 16:36:00,66.8,52.5,29.88,West,271,13.0,20.0,60,0.00,,---,0.43,VWS V14.00,2013-07-28 20:36:00,
2013-07-28 16:37:00,66.9,52.6,29.88,West,267,16.0,20.0,60,0.00,,---,0.43,VWS V14.00,2013-07-28 20:37:00,
2013-07-28 16:41:00,67.2,52.9,29.88,WNW,289,10.0,20.0,60,0.00,,---,0.43,VWS V14.00,2013-07-28 20:41:00,
2013-07-28 16:42:00,67.3,53.4,29.88,West,264,9.0,20.0,61,0.00,,---,0.43,VWS V14.00,2013-07-28 20:42:00,
2013-07-28 16:43:00,67.3,53.4,29.88,West,269,7.0,20.0,61,0.00,,---,0.43,VWS V14.00,2013-07-28 20:43:00,
2013-07-28 16:44:00,67.5,53.6,29.88,NNW,327,19.0,20.0,61,0.00,,---,0.43,VWS V14.00,2013-07-28 20:44:00,
2013-07-28 16:45:00,67.5,53.6,29.88,NNW,333,10.0,20.0,61,0.00,,---,0.43,VWS V14.00,2013-07-28 20:45:00,
2013-07-28 16:49:00,67.9,54.0,29.88,NW,306,10.0,20.0,61,0.00,,---,0.43,VWS V14.00,2013-07-28 20:49:00,
2013-07-28 16:50:00,68.0,53.6,29.89,WNW,300,9.0,20.0,60,0.00,,---,0.43,VWS V14.00,2013-07-28 20:50:00,
2013-07-28 16:51:00,68.0,53.6,29.89,West,261,6.0,20.0,60,0.00,,---,0.43,VWS V14.00,2013-07-28 20:51:00,
2013-07-28 16:52:00,68.1,53.7,29.89,WNW,294,5.0,20.0,60,0.00,,---,0.43,VWS V14.00,2013-07-28 20:52:00,
2013-07-28 16:53:00,68.3,53.9,29.89,WNW,297,14.0,20.0,60,0.00,,---,0.43,VWS V14.00,2013-07-28 20:53:00,
2013-07-28 16:54:00,68.3,53.9,29.89,NNW,344,15.0,20.0,60,0.00,,---,0.43,VWS V14.00,2013-07-28 20:54:00,
2013-07-28 16:56:00,67.9,53.1,29.89,North,349,10.0,20.0,59,0.00,,---,0.43,VWS V14.00,2013-07-28 20:56:00,
2013-07-28 16:57:00,67.4,53.0,29.89,WNW,284,7.0,20.0,60,0.00,,---,0.43,VWS V14.00,2013-07-28 20:57:00,
2013-07-28 16:59:00,67.2,53.3,29.89,NNW,336,7.0,20.0,61,0.00,,---,0.43,VWS V14.00,2013-07-28 20:59:00,
2013-07-28 17:00:00,67.3,53.4,29.89,NW,306,8.0,20.0,61,0.00,,---,0.43,VWS V14.00,2013-07-28 21:00:00,
2013-07-28 17:02:00,67.4,53.5,29.89,NW,326,3.0,7.0,61,0.00,,---,0.43,VWS V14.00,2013-07-28 21:02:00,
2013-07-28 17:03:00,67.4,53.5,29.89,NNE,13,5.0,10.0,61,0.00,,---,0.43,VWS V14.00,2013-07-28 21:03:00,
2013-07-28 17:05:00,67.2,53.3,29.89,NNW,329,7.0,14.0,61,0.00,,---,0.43,VWS V14.00,2013-07-28 21:05:00,
2013-07-28 17:07:00,66.8,52.9,29.89,NW,308,9.0,17.0,61,0.00,,---,0.43,VWS V14.00,2013-07-28 21:07:00,
2013-07-28 17:08:00,66.7,52.8,29.89,WNW,296,13.0,17.0,61,0.00,,---,0.43,VWS V14.00,2013-07-28 21:08:00,
2013-07-28 17:09:00,66.6,53.2,29.89,WNW,298,11.0,18.0,62,0.00,,---,0.43,VWS V14.00,2013-07-28 21:09:00,
2013-07-28 17:10:00,66.5,53.1,29.89,NW,318,7.0,19.0,62,0.00,,---,0.43,VWS V14.00,2013-07-28 21:10:00,
2013-07-28 17:13:00,66.6,53.2,29.89,West,268,11.0,19.0,62,0.00,,---,0.43,VWS V14.00,2013-07-28 21:13:00,
2013-07-28 17:14:00,66.6,53.2,29.89,WNW,301,6.0,19.0,62,0.00,,---,0.43,VWS V14.00,2013-07-28 21:14:00,
2013-07-28 17:16:00,66.8,53.4,29.89,NW,326,12.0,19.0,62,0.00,,---,0.43,VWS V14.00,2013-07-28 21:16:00,
2013-07-28 17:20:00,66.7,53.3,29.89,WNW,302,10.0,19.0,62,0.00,,---,0.43,VWS V14.00,2013-07-28 21:20:00,
2013-07-28 17:22:00,66.5,53.5,29.89,NNW,330,10.0,19.0,63,0.00,,---,0.43,VWS V14.00,2013-07-28 21:22:00,
2013-07-28 17:23:00,66.4,53.4,29.89,NW,325,14.0,19.0,63,0.00,,---,0.43,VWS V14.00,2013-07-28 21:23:00,
2013-07-28 17:28:00,65.8,52.9,29.89,NW,314,6.0,19.0,63,0.00,,---,0.43,VWS V14.00,2013-07-28 21:28:00,
2013-07-28 17:29:00,65.7,53.2,29.89,NW,317,4.0,19.0,64,0.00,,---,0.43,VWS V14.00,2013-07-28 21:29:00,
2013-07-28 17:33:00,65.8,53.3,29.90,NW,314,11.0,17.0,64,0.00,,---,0.43,VWS V14.00,2013-07-28 21:33:00,
2013-07-28 17:35:00,65.8,53.3,29.90,NNW,346,11.0,17.0,64,0.00,,---,0.43,VWS V14.00,2013-07-28 21:35:00,
2013-07-28 17:40:00,65.7,53.2,29.90,NW,314,1.0,17.0,64,0.00,,---,0.43,VWS V14.00,2013-07-28 21:40:00,
2013-07-28 17:41:00,65.7,53.2,29.90,NW,308,13.0,17.0,64,0.00,,---,0.43,VWS V14.00,2013-07-28 21:41:00,
2013-07-28 17:43:00,65.8,52.9,29.90,NNW,327,12.0,17.0,63,0.00,,---,0.43,VWS V14.00,2013-07-28 21:43:00,
2013-07-28 17:45:00,65.7,52.8,29.90,WNW,297,8.0,17.0,63,0.00,,---,0.43,VWS V14.00,2013-07-28 21:45:00,
2013-07-28 17:47:00,65.6,52.7,29.90,WNW,295,10.0,17.0,63,0.00,,---,0.43,VWS V14.00,2013-07-28 21:47:00,
2013-07-28 17:48:00,65.6,52.7,29.90,WNW,302,8.0,17.0,63,0.00,,---,0.43,VWS V14.00,2013-07-28 21:48:00,
2013-07-28 17:51:00,65.4,52.5,29.90,WNW,288,12.0,17.0,63,0.00,,---,0.43,VWS V14.00,2013-07-28 21:51:00,
2013-07-28 17:52:00,65.3,52.4,29.90,WNW,286,8.0,17.0,63,0.00,,---,0.43,VWS V14.00,2013-07-28 21:52:00,
2013-07-28 17:53:00,65.2,52.3,29.90,WNW,296,7.0,17.0,63,0.00,,---,0.43,VWS V14.00,2013-07-28 21:53:00,
2013-07-28 17:56:00,65.1,52.6,29.91,WNW,294,5.0,17.0,64,0.00,,---,0.43,VWS V14.00,2013-07-28 21:56:00,
2013-07-28 17:59:00,64.8,51.9,29.90,NNW,334,13.0,17.0,63,0.00,,---,0.43,VWS V14.00,2013-07-28 21:59:00,
2013-07-28 18:01:00,64.4,52.0,29.91,NW,323,9.0,10.0,64,0.00,,---,0.43,VWS V14.00,2013-07-28 22:01:00,
2013-07-28 18:02:00,64.4,52.0,29.91,WNW,290,5.0,10.0,64,0.00,,---,0.43,VWS V14.00,2013-07-28 22:02:00,
2013-07-28 18:05:00,64.1,52.1,29.90,WNW,300,11.0,15.0,65,0.00,,---,0.43,VWS V14.00,2013-07-28 22:05:00,
2013-07-28 18:07:00,63.9,51.9,29.90,WNW,284,5.0,15.0,65,0.00,,---,0.43,VWS V14.00,2013-07-28 22:07:00,
2013-07-28 18:08:00,63.9,52.3,29.90,NW,317,6.0,15.0,66,0.00,,---,0.43,VWS V14.00,2013-07-28 22:08:00,
2013-07-28 18:11:00,63.8,52.2,29.91,WNW,287,6.0,15.0,66,0.00,,---,0.43,VWS V14.00,2013-07-28 22:11:00,
2013-07-28 18:12:00,63.8,52.2,29.91,NW,314,6.0,15.0,66,0.00,,---,0.43,VWS V14.00,2013-07-28 22:12:00,
2013-07-28 18:13:00,63.8,52.2,29.91,NW,309,6.0,15.0,66,0.00,,---,0.43,VWS V14.00,2013-07-28 22:13:00,
2013-07-28 18:16:00,63.6,52.0,29.91,WNW,298,9.0,17.0,66,0.00,,---,0.43,VWS V14.00,2013-07-28 22:16:00,
2013-07-28 18:18:00,63.6,52.0,29.91,WNW,291,7.0,17.0,66,0.00,,---,0.43,VWS V14.00,2013-07-28 22:18:00,
2013-07-28 18:19:00,63.5,52.4,29.91,WNW,292,7.0,17.0,67,0.00,,---,0.43,VWS V14.00,2013-07-28 22:19:00,
2013-07-28 18:21:00,63.5,52.4,29.91,WNW,298,8.0,17.0,67,0.00,,---,0.43,VWS V14.00,2013-07-28 22:21:00,
2013-07-28 18:23:00,63.3,52.2,29.91,NW,323,9.0,17.0,67,0.00,,---,0.43,VWS V14.00,2013-07-28 22:23:00,
2013-07-28 18:25:00,63.1,52.4,29.91,WNW,302,10.0,17.0,68,0.00,,---,0.43,VWS V14.00,2013-07-28 22:25:00,
2013-07-28 18:26:00,63.1,52.4,29.91,NW,314,5.0,17.0,68,0.00,,---,0.43,VWS V14.00,2013-07-28 22:26:00,
2013-07-28 18:27:00,63.1,52.4,29.91,NW,318,5.0,17.0,68,0.00,,---,0.43,VWS V14.00,2013-07-28 22:27:00,
2013-07-28 18:29:00,63.1,52.4,29.91,NW,309,10.0,17.0,68,0.00,,---,0.43,VWS V14.00,2013-07-28 22:29:00,
2013-07-28 18:31:00,63.0,52.3,29.91,WNW,291,5.0,17.0,68,0.00,,---,0.43,VWS V14.00,2013-07-28 22:31:00,
2013-07-28 18:32:00,63.1,52.4,29.91,WSW,253,3.0,12.0,68,0.00,,---,0.43,VWS V14.00,2013-07-28 22:32:00,
2013-07-28 18:33:00,63.0,52.3,29.91,West,269,4.0,12.0,68,0.00,,---,0.43,VWS V14.00,2013-07-28 22:33:00,
2013-07-28 18:34:00,63.0,52.3,29.91,West,269,5.0,12.0,68,0.00,,---,0.43,VWS V14.00,2013-07-28 22:34:00,
2013-07-28 18:36:00,63.0,52.3,29.91,West,279,4.0,13.0,68,0.00,,---,0.43,VWS V14.00,2013-07-28 22:36:00,
2013-07-28 18:37:00,63.0,52.3,29.91,WNW,286,6.0,13.0,68,0.00,,---,0.43,VWS V14.00,2013-07-28 22:37:00,
2013-07-28 18:38:00,63.0,52.3,29.91,WNW,287,3.0,13.0,68,0.00,,---,0.43,VWS V14.00,2013-07-28 22:38:00,
2013-07-28 18:40:00,63.1,52.4,29.92,WNW,296,4.0,13.0,68,0.00,,---,0.43,VWS V14.00,2013-07-28 22:40:00,
2013-07-28 18:43:00,63.1,52.4,29.91,WNW,296,4.0,13.0,68,0.00,,---,0.43,VWS V14.00,2013-07-28 22:43:00,
2013-07-28 18:44:00,63.1,52.4,29.91,West,265,5.0,13.0,68,0.00,,---,0.43,VWS V14.00,2013-07-28 22:44:00,
2013-07-28 18:45:00,63.2,52.5,29.91,NW,319,5.0,13.0,68,0.00,,---,0.43,VWS V14.00,2013-07-28 22:45:00,
2013-07-28 18:47:00,63.1,52.4,29.91,WNW,303,4.0,13.0,68,0.00,,---,0.43,VWS V14.00,2013-07-28 22:47:00,
2013-07-28 18:49:00,63.0,52.3,29.92,WNW,291,6.0,13.0,68,0.00,,---,0.43,VWS V14.00,2013-07-28 22:49:00,
2013-07-28 18:50:00,63.0,52.3,29.92,WNW,299,12.0,13.0,68,0.00,,---,0.43,VWS V14.00,2013-07-28 22:50:00,
2013-07-28 18:52:00,63.0,52.3,29.92,WNW,297,8.0,13.0,68,0.00,,---,0.43,VWS V14.00,2013-07-28 22:52:00,
2013-07-28 18:55:00,63.0,52.7,29.92,WNW,300,9.0,13.0,69,0.00,,---,0.43,VWS V14.00,2013-07-28 22:55:00,
2013-07-28 18:57:00,63.0,52.3,29.92,NW,318,9.0,14.0,68,0.00,,---,0.43,VWS V14.00,2013-07-28 22:57:00,
2013-07-28 18:58:00,62.9,52.2,29.92,WNW,298,6.0,14.0,68,0.00,,---,0.43,VWS V14.00,2013-07-28 22:58:00,
2013-07-28 19:00:00,62.9,52.6,29.92,West,280,6.0,14.0,69,0.00,,---,0.43,VWS V14.00,2013-07-28 23:00:00,
2013-07-28 19:02:00,62.9,52.6,29.92,WNW,288,7.0,15.0,69,0.00,,---,0.43,VWS V14.00,2013-07-28 23:02:00,
2013-07-28 19:03:00,62.9,52.6,29.92,West,275,6.0,15.0,69,0.00,,---,0.43,VWS V14.00,2013-07-28 23:03:00,
2013-07-28 19:04:00,62.9,52.6,29.92,West,276,6.0,15.0,69,0.00,,---,0.43,VWS V14.00,2013-07-28 23:04:00,
2013-07-28 19:06:00,63.0,52.7,29.92,WNW,290,6.0,15.0,69,0.00,,---,0.43,VWS V14.00,2013-07-28 23:06:00,
2013-07-28 19:09:00,63.2,52.9,29.92,WNW,290,7.0,15.0,69,0.00,,---,0.43,VWS V14.00,2013-07-28 23:09:00,
2013-07-28 19:11:00,63.4,53.1,29.92,WNW,286,7.0,15.0,69,0.00,,---,0.43,VWS V14.00,2013-07-28 23:11:00,
2013-07-28 19:12:00,63.5,53.2,29.92,WNW,286,4.0,15.0,69,0.00,,---,0.43,VWS V14.00,2013-07-28 23:12:00,
2013-07-28 19:14:00,63.6,53.3,29.92,WNW,287,10.0,15.0,69,0.00,,---,0.43,VWS V14.00,2013-07-28 23:14:00,
2013-07-28 19:15:00,63.6,53.3,29.92,West,262,8.0,15.0,69,0.00,,---,0.43,VWS V14.00,2013-07-28 23:15:00,
2013-07-28 19:16:00,63.6,52.9,29.92,West,272,6.0,15.0,68,0.00,,---,0.43,VWS V14.00,2013-07-28 23:16:00,
2013-07-28 19:17:00,63.6,52.5,29.92,West,271,5.0,15.0,67,0.00,,---,0.43,VWS V14.00,2013-07-28 23:17:00,
2013-07-28 19:20:00,63.9,53.1,29.92,West,277,1.0,15.0,68,0.00,,---,0.43,VWS V14.00,2013-07-28 23:20:00,
2013-07-28 19:21:00,63.9,53.1,29.92,West,276,2.0,15.0,68,0.00,,---,0.43,VWS V14.00,2013-07-28 23:21:00,
2013-07-28 19:22:00,64.0,53.2,29.92,WNW,288,3.0,15.0,68,0.00,,---,0.43,VWS V14.00,2013-07-28 23:22:00,
2013-07-28 19:24:00,64.1,53.3,29.92,West,280,10.0,15.0,68,0.00,,---,0.43,VWS V14.00,2013-07-28 23:24:00,
2013-07-28 19:26:00,64.1,52.9,29.92,West,274,10.0,15.0,67,0.00,,---,0.43,VWS V14.00,2013-07-28 23:26:00,
2013-07-28 19:27:00,64.1,52.9,29.92,WNW,297,8.0,15.0,67,0.00,,---,0.43,VWS V14.00,2013-07-28 23:27:00,
2013-07-28 19:28:00,64.0,52.8,29.92,WNW,303,9.0,15.0,67,0.00,,---,0.43,VWS V14.00,2013-07-28 23:28:00,
2013-07-28 19:32:00,63.7,53.0,29.92,West,266,12.0,15.0,68,0.00,,---,0.43,VWS V14.00,2013-07-28 23:32:00,
2013-07-28 19:33:00,63.6,52.9,29.93,NW,325,10.0,15.0,68,0.00,,---,0.43,VWS V14.00,2013-07-28 23:33:00,
2013-07-28 19:34:00,63.5,52.8,29.93,WNW,295,7.0,15.0,68,0.00,,---,0.43,VWS V14.00,2013-07-28 23:34:00,
2013-07-28 19:36:00,63.3,53.0,29.93,WNW,284,5.0,15.0,69,0.00,,---,0.43,VWS V14.00,2013-07-28 23:36:00,
2013-07-28 19:38:00,63.3,53.0,29.93,NW,316,14.0,15.0,69,0.00,,---,0.43,VWS V14.00,2013-07-28 23:38:00,
2013-07-28 19:40:00,63.0,53.1,29.93,NW,311,14.0,15.0,70,0.00,,---,0.43,VWS V14.00,2013-07-28 23:40:00,
2013-07-28 19:41:00,63.0,52.7,29.93,WNW,299,7.0,16.0,69,0.00,,---,0.43,VWS V14.00,2013-07-28 23:41:00,
2013-07-28 19:42:00,62.9,53.0,29.93,WNW,288,5.0,16.0,70,0.00,,---,0.43,VWS V14.00,2013-07-28 23:42:00,
2013-07-28 19:44:00,63.0,53.1,29.93,NW,313,13.0,16.0,70,0.00,,---,0.43,VWS V14.00,2013-07-28 23:44:00,
2013-07-28 19:47:00,63.0,53.1,29.93,WNW,286,8.0,16.0,70,0.00,,---,0.43,VWS V14.00,2013-07-28 23:47:00,
2013-07-28 19:48:00,63.0,53.1,29.93,West,264,6.0,16.0,70,0.00,,---,0.43,VWS V14.00,2013-07-28 23:48:00,
2013-07-28 19:49:00,63.0,53.1,29.93,WNW,285,5.0,16.0,70,0.00,,---,0.43,VWS V14.00,2013-07-28 23:49:00,
2013-07-28 19:52:00,63.0,53.1,29.93,WNW,283,4.0,16.0,70,0.00,,---,0.43,VWS V14.00,2013-07-28 23:52:00,
2013-07-28 19:53:00,63.0,53.1,29.93,WNW,302,8.0,16.0,70,0.00,,---,0.43,VWS V14.00,2013-07-28 23:53:00,
2013-07-28 19:55:00,62.9,53.4,29.93,WNW,303,6.0,16.0,71,0.00,,---,0.43,VWS V14.00,2013-07-28 23:55:00,
2013-07-28 19:56:00,62.8,53.3,29.93,NW,307,7.0,16.0,71,0.00,,---,0.43,VWS V14.00,2013-07-28 23:56:00,
2013-07-28 19:58:00,62.6,53.1,29.93,NW,317,4.0,16.0,71,0.00,,---,0.43,VWS V14.00,2013-07-28 23:58:00,
2013-07-28 20:00:00,62.4,53.3,29.93,WNW,297,5.0,16.0,72,0.00,,---,0.43,VWS V14.00,2013-07-29 00:00:00,
2013-07-28 20:01:00,62.4,53.3,29.93,NW,317,3.0,16.0,72,0.00,,---,0.43,VWS V14.00,2013-07-29 00:01:00,
2013-07-28 20:03:00,62.3,53.2,29.93,WNW,287,3.0,7.0,72,0.00,,---,0.43,VWS V14.00,2013-07-29 00:03:00,
2013-07-28 20:04:00,62.3,53.2,29.93,WNW,288,5.0,7.0,72,0.00,,---,0.43,VWS V14.00,2013-07-29 00:04:00,
2013-07-28 20:07:00,62.3,53.5,29.94,West,263,4.0,7.0,73,0.00,,---,0.43,VWS V14.00,2013-07-29 00:07:00,
2013-07-28 20:08:00,62.2,53.5,29.94,West,274,4.0,7.0,73,0.00,,---,0.43,VWS V14.00,2013-07-29 00:08:00,
2013-07-28 20:10:00,62.2,53.5,29.93,NW,307,3.0,7.0,73,0.00,,---,0.43,VWS V14.00,2013-07-29 00:10:00,
2013-07-28 20:11:00,62.1,53.3,29.94,NNW,338,7.0,7.0,73,0.00,,---,0.43,VWS V14.00,2013-07-29 00:11:00,
2013-07-28 20:13:00,62.0,53.3,29.94,NW,319,5.0,7.0,73,0.00,,---,0.43,VWS V14.00,2013-07-29 00:13:00,
2013-07-28 20:14:00,62.0,53.3,29.94,NW,317,4.0,7.0,73,0.00,,---,0.43,VWS V14.00,2013-07-29 00:14:00,
2013-07-28 20:16:00,61.9,53.5,29.94,NW,322,3.0,7.0,74,0.00,,---,0.43,VWS V14.00,2013-07-29 00:16:00,
2013-07-28 20:19:00,61.7,53.3,29.94,NW,326,5.0,8.0,74,0.00,,---,0.43,VWS V14.00,2013-07-29 00:19:00,
2013-07-28 20:22:00,61.6,53.2,29.94,NW,321,5.0,8.0,74,0.00,,---,0.43,VWS V14.00,2013-07-29 00:22:00,
2013-07-28 20:25:00,61.5,53.5,29.94,NW,321,3.0,8.0,75,0.00,,---,0.43,VWS V14.00,2013-07-29 00:25:00,
2013-07-28 20:27:00,61.5,53.5,29.94,NW,320,2.0,8.0,75,0.00,,---,0.43,VWS V14.00,2013-07-29 00:27:00,
2013-07-28 20:28:00,61.5,53.5,29.94,NW,319,0.0,8.0,75,0.00,,---,0.43,VWS V14.00,2013-07-29 00:28:00,
2013-07-28 20:29:00,61.5,53.5,29.94,WNW,302,5.0,8.0,75,0.00,,---,0.43,VWS V14.00,2013-07-29 00:29:00,
2013-07-28 20:31:00,61.5,53.5,29.93,WNW,300,3.0,8.0,75,0.00,,---,0.43,VWS V14.00,2013-07-29 00:31:00,
2013-07-28 20:32:00,61.5,53.5,29.94,WNW,300,2.0,3.0,75,0.00,,---,0.43,VWS V14.00,2013-07-29 00:32:00,
2013-07-28 20:33:00,61.6,53.6,29.94,WNW,300,3.0,3.0,75,0.00,,---,0.43,VWS V14.00,2013-07-29 00:33:00,
2013-07-28 20:36:00,61.6,53.6,29.94,WNW,300,1.0,4.0,75,0.00,,---,0.43,VWS V14.00,2013-07-29 00:36:00,
2013-07-28 20:37:00,61.6,53.6,29.94,WNW,300,1.0,4.0,75,0.00,,---,0.43,VWS V14.00,2013-07-29 00:37:00,
2013-07-28 20:39:00,61.6,54.0,29.94,WNW,299,1.0,4.0,76,0.00,,---,0.43,VWS V14.00,2013-07-29 00:39:00,
2013-07-28 20:40:00,61.6,54.0,29.94,WNW,299,3.0,4.0,76,0.00,,---,0.43,VWS V14.00,2013-07-29 00:40:00,
2013-07-28 20:42:00,61.6,54.0,29.94,WNW,293,3.0,5.0,76,0.00,,---,0.43,VWS V14.00,2013-07-29 00:42:00,
2013-07-28 20:44:00,61.6,54.0,29.94,WNW,293,0.0,5.0,76,0.00,,---,0.43,VWS V14.00,2013-07-29 00:44:00,
2013-07-28 20:47:00,61.5,53.9,29.94,WNW,283,2.0,7.0,76,0.00,,---,0.43,VWS V14.00,2013-07-29 00:47:00,
2013-07-28 20:49:00,61.4,53.8,29.94,WNW,283,5.0,7.0,76,0.00,,---,0.43,VWS V14.00,2013-07-29 00:49:00,
2013-07-28 20:50:00,61.4,53.8,29.94,WNW,283,2.0,7.0,76,0.00,,---,0.43,VWS V14.00,2013-07-29 00:50:00,
2013-07-28 20:51:00,61.3,53.7,29.94,WNW,283,3.0,7.0,76,0.00,,---,0.43,VWS V14.00,2013-07-29 00:51:00,
2013-07-28 20:53:00,61.3,53.7,29.94,WNW,283,3.0,7.0,76,0.00,,---,0.43,VWS V14.00,2013-07-29 00:53:00,
2013-07-28 20:55:00,61.3,53.7,29.94,WNW,283,2.0,7.0,76,0.00,,---,0.43,VWS V14.00,2013-07-29 00:55:00,
2013-07-28 20:56:00,61.3,53.7,29.94,WNW,283,3.0,7.0,76,0.00,,---,0.43,VWS V14.00,2013-07-29 00:56:00,
2013-07-28 20:58:00,61.3,53.7,29.94,WNW,283,1.0,7.0,76,0.00,,---,0.43,VWS V14.00,2013-07-29 00:58:00,
2013-07-28 20:59:00,61.3,54.0,29.94,WNW,283,2.0,7.0,77,0.00,,---,0.43,VWS V14.00,2013-07-29 00:59:00,
2013-07-28 21:00:00,61.2,53.6,29.93,WNW,283,3.0,7.0,76,0.00,,---,0.43,VWS V14.00,2013-07-29 01:00:00,
2013-07-28 21:02:00,61.2,53.6,29.94,WNW,283,2.0,4.0,76,0.00,,---,0.43,VWS V14.00,2013-07-29 01:02:00,
2013-07-28 21:03:00,61.2,53.6,29.93,WNW,283,3.0,4.0,76,0.00,,---,0.43,VWS V14.00,2013-07-29 01:03:00,
2013-07-28 21:05:00,61.1,53.8,29.94,West,281,2.0,6.0,77,0.00,,---,0.43,VWS V14.00,2013-07-29 01:05:00,
2013-07-28 21:07:00,61.1,53.8,29.94,West,281,2.0,6.0,77,0.00,,---,0.43,VWS V14.00,2013-07-29 01:07:00,
2013-07-28 21:08:00,61.1,53.8,29.94,West,281,4.0,6.0,77,0.00,,---,0.43,VWS V14.00,2013-07-29 01:08:00,
2013-07-28 21:10:00,61.1,53.8,29.94,West,281,3.0,6.0,77,0.00,,---,0.43,VWS V14.00,2013-07-29 01:10:00,
2013-07-28 21:11:00,61.1,53.8,29.94,West,281,3.0,6.0,77,0.00,,---,0.43,VWS V14.00,2013-07-29 01:11:00,
2013-07-28 21:12:00,61.1,53.8,29.94,West,281,4.0,6.0,77,0.00,,---,0.43,VWS V14.00,2013-07-29 01:12:00,
2013-07-28 21:16:00,61.1,53.8,29.94,West,268,4.0,6.0,77,0.00,,---,0.43,VWS V14.00,2013-07-29 01:16:00,
2013-07-28 21:17:00,61.1,53.8,29.94,West,268,4.0,6.0,77,0.00,,---,0.43,VWS V14.00,2013-07-29 01:17:00,
2013-07-28 21:19:00,61.1,53.8,29.94,West,269,4.0,6.0,77,0.00,,---,0.43,VWS V14.00,2013-07-29 01:19:00,
2013-07-28 21:23:00,61.0,53.8,29.94,West,269,4.0,6.0,77,0.00,,---,0.43,VWS V14.00,2013-07-29 01:23:00,
2013-07-28 21:25:00,61.0,53.8,29.94,West,268,3.0,6.0,77,0.00,,---,0.43,VWS V14.00,2013-07-29 01:25:00,
2013-07-28 21:29:00,61.0,53.8,29.94,West,268,5.0,6.0,77,0.00,,---,0.43,VWS V14.00,2013-07-29 01:29:00,
2013-07-28 21:30:00,61.0,53.8,29.94,West,268,5.0,6.0,77,0.00,,---,0.43,VWS V14.00,2013-07-29 01:30:00,
2013-07-28 21:31:00,61.1,53.8,29.94,West,268,2.0,6.0,77,0.00,,---,0.43,VWS V14.00,2013-07-29 01:31:00,
2013-07-28 21:34:00,61.1,53.8,29.94,West,268,6.0,6.0,77,0.00,,---,0.43,VWS V14.00,2013-07-29 01:34:00,
2013-07-28 21:36:00,61.1,53.8,29.94,West,268,2.0,6.0,77,0.00,,---,0.43,VWS V14.00,2013-07-29 01:36:00,
2013-07-28 21:39:00,61.2,53.9,29.94,West,268,3.0,6.0,77,0.00,,---,0.43,VWS V14.00,2013-07-29 01:39:00,
2013-07-28 21:43:00,61.2,53.9,29.94,West,267,4.0,6.0,77,0.00,,---,0.43,VWS V14.00,2013-07-29 01:43:00,
2013-07-28 21:45:00,61.2,53.9,29.94,West,267,2.0,6.0,77,0.00,,---,0.43,VWS V14.00,2013-07-29 01:45:00,
2013-07-28 21:47:00,61.2,53.9,29.94,West,267,1.0,6.0,77,0.00,,---,0.43,VWS V14.00,2013-07-29 01:47:00,
2013-07-28 21:48:00,61.1,53.8,29.94,West,267,2.0,6.0,77,0.00,,---,0.43,VWS V14.00,2013-07-29 01:48:00,
2013-07-28 21:50:00,61.1,53.8,29.94,West,267,3.0,6.0,77,0.00,,---,0.43,VWS V14.00,2013-07-29 01:50:00,
2013-07-28 21:51:00,61.1,53.8,29.94,West,267,3.0,6.0,77,0.00,,---,0.43,VWS V14.00,2013-07-29 01:51:00,
2013-07-28 21:53:00,61.1,54.2,29.94,West,267,0.0,6.0,78,0.00,,---,0.43,VWS V14.00,2013-07-29 01:53:00,
2013-07-28 21:54:00,61.0,54.1,29.94,West,267,2.0,6.0,78,0.00,,---,0.43,VWS V14.00,2013-07-29 01:54:00,
2013-07-28 21:55:00,61.1,54.2,29.94,West,267,3.0,6.0,78,0.00,,---,0.43,VWS V14.00,2013-07-29 01:55:00,
2013-07-28 21:58:00,61.0,53.8,29.94,West,267,0.0,6.0,77,0.00,,---,0.43,VWS V14.00,2013-07-29 01:58:00,
2013-07-28 22:01:00,61.0,54.1,29.94,West,267,0.0,6.0,78,0.00,,---,0.43,VWS V14.00,2013-07-29 02:01:00,
2013-07-28 22:02:00,61.0,54.1,29.94,West,267,0.0,0.0,78,0.00,,---,0.43,VWS V14.00,2013-07-29 02:02:00,
2013-07-28 22:05:00,61.0,54.1,29.94,West,266,0.0,0.0,78,0.00,,---,0.43,VWS V14.00,2013-07-29 02:05:00,
2013-07-28 22:06:00,61.0,54.1,29.94,West,265,0.0,0.0,78,0.00,,---,0.43,VWS V14.00,2013-07-29 02:06:00,
2013-07-28 22:08:00,61.0,54.1,29.94,West,266,0.0,0.0,78,0.00,,---,0.43,VWS V14.00,2013-07-29 02:08:00,
2013-07-28 22:10:00,60.9,54.0,29.94,West,265,0.0,0.0,78,0.00,,---,0.43,VWS V14.00,2013-07-29 02:10:00,
2013-07-28 22:12:00,60.9,54.0,29.94,West,264,0.0,0.0,78,0.00,,---,0.43,VWS V14.00,2013-07-29 02:12:00,
2013-07-28 22:13:00,60.9,54.0,29.94,West,259,0.0,0.0,78,0.00,,---,0.43,VWS V14.00,2013-07-29 02:13:00,
2013-07-28 22:14:00,60.9,54.0,29.94,West,259,0.0,0.0,78,0.00,,---,0.43,VWS V14.00,2013-07-29 02:14:00,
2013-07-28 22:16:00,60.9,54.0,29.94,West,260,0.0,0.0,78,0.00,,---,0.43,VWS V14.00,2013-07-29 02:16:00,
2013-07-28 22:19:00,60.9,54.0,29.94,West,260,0.0,0.0,78,0.00,,---,0.43,VWS V14.00,2013-07-29 02:19:00,
2013-07-28 22:21:00,60.8,53.9,29.94,West,260,0.0,0.0,78,0.00,,---,0.43,VWS V14.00,2013-07-29 02:21:00,
2013-07-28 22:22:00,60.8,53.9,29.94,West,259,0.0,0.0,78,0.00,,---,0.43,VWS V14.00,2013-07-29 02:22:00,
2013-07-28 22:25:00,60.8,53.9,29.94,WSW,244,0.0,0.0,78,0.00,,---,0.43,VWS V14.00,2013-07-29 02:25:00,
2013-07-28 22:26:00,60.8,53.9,29.94,WSW,244,0.0,0.0,78,0.00,,---,0.43,VWS V14.00,2013-07-29 02:26:00,
2013-07-28 22:27:00,60.8,53.9,29.94,WSW,245,0.0,0.0,78,0.00,,---,0.43,VWS V14.00,2013-07-29 02:27:00,
2013-07-28 22:30:00,60.8,53.9,29.94,WSW,245,0.0,0.0,78,0.00,,---,0.43,VWS V14.00,2013-07-29 02:30:00,
2013-07-28 22:32:00,60.8,53.9,29.94,WSW,245,0.0,0.0,78,0.00,,---,0.43,VWS V14.00,2013-07-29 02:32:00,
2013-07-28 22:33:00,60.8,54.3,29.94,WSW,245,0.0,0.0,79,0.00,,---,0.43,VWS V14.00,2013-07-29 02:33:00,
2013-07-28 22:34:00,60.8,54.3,29.94,WSW,245,0.0,0.0,79,0.00,,---,0.43,VWS V14.00,2013-07-29 02:34:00,
2013-07-28 22:36:00,60.9,54.3,29.94,WSW,245,0.0,0.0,79,0.00,,---,0.43,VWS V14.00,2013-07-29 02:36:00,
2013-07-28 22:39:00,60.8,54.3,29.94,WSW,246,0.0,0.0,79,0.00,,---,0.43,VWS V14.00,2013-07-29 02:39:00,
2013-07-28 22:40:00,60.8,54.3,29.94,WSW,246,0.0,0.0,79,0.00,,---,0.43,VWS V14.00,2013-07-29 02:40:00,
2013-07-28 22:41:00,60.8,54.3,29.94,WSW,246,0.0,0.0,79,0.00,,---,0.43,VWS V14.00,2013-07-29 02:41:00,
2013-07-28 22:45:00,60.7,54.5,29.94,WSW,245,0.0,0.0,80,0.00,,---,0.43,VWS V14.00,2013-07-29 02:45:00,
2013-07-28 22:47:00,60.6,54.4,29.93,WSW,245,0.0,0.0,80,0.00,,---,0.43,VWS V14.00,2013-07-29 02:47:00,
2013-07-28 22:48:00,60.6,54.4,29.93,WSW,246,0.0,0.0,80,0.00,,---,0.43,VWS V14.00,2013-07-29 02:48:00,
2013-07-28 22:51:00,60.6,54.8,29.94,WSW,245,0.0,0.0,81,0.00,,---,0.43,VWS V14.00,2013-07-29 02:51:00,
2013-07-28 22:52:00,60.6,54.8,29.94,WSW,246,0.0,0.0,81,0.00,,---,0.43,VWS V14.00,2013-07-29 02:52:00,
2013-07-28 22:53:00,60.5,54.3,29.94,WSW,246,0.0,0.0,80,0.00,,---,0.43,VWS V14.00,2013-07-29 02:53:00,
2013-07-28 22:55:00,60.5,54.7,29.94,WSW,246,0.0,0.0,81,0.00,,---,0.43,VWS V14.00,2013-07-29 02:55:00,
2013-07-28 22:56:00,60.5,54.7,29.94,WSW,246,0.0,0.0,81,0.00,,---,0.43,VWS V14.00,2013-07-29 02:56:00,
2013-07-28 22:58:00,60.4,54.5,29.94,WSW,244,0.0,0.0,81,0.00,,---,0.43,VWS V14.00,2013-07-29 02:58:00,
2013-07-28 23:01:00,60.4,54.5,29.94,WSW,244,0.0,0.0,81,0.00,,---,0.43,VWS V14.00,2013-07-29 03:01:00,
2013-07-28 23:03:00,60.4,54.5,29.94,WSW,244,0.0,0.0,81,0.00,,---,0.43,VWS V14.00,2013-07-29 03:03:00,
2013-07-28 23:04:00,60.4,54.5,29.94,WSW,244,0.0,0.0,81,0.00,,---,0.43,VWS V14.00,2013-07-29 03:04:00,
2013-07-28 23:06:00,60.4,54.5,29.94,WSW,244,0.0,0.0,81,0.00,,---,0.43,VWS V14.00,2013-07-29 03:06:00,
2013-07-28 23:08:00,60.3,54.5,29.94,WSW,244,0.0,0.0,81,0.00,,---,0.43,VWS V14.00,2013-07-29 03:08:00,
2013-07-28 23:10:00,60.3,54.5,29.94,WSW,244,0.0,0.0,81,0.00,,---,0.43,VWS V14.00,2013-07-29 03:10:00,
2013-07-28 23:11:00,60.3,54.5,29.94,WSW,244,0.0,0.0,81,0.00,,---,0.43,VWS V14.00,2013-07-29 03:11:00,
2013-07-28 23:13:00,60.3,54.5,29.94,WSW,244,0.0,0.0,81,0.00,,---,0.43,VWS V14.00,2013-07-29 03:13:00,
2013-07-28 23:14:00,60.3,54.5,29.94,WSW,242,0.0,0.0,81,0.00,,---,0.43,VWS V14.00,2013-07-29 03:14:00,
2013-07-28 23:15:00,60.3,54.5,29.94,WSW,242,0.0,0.0,81,0.00,,---,0.43,VWS V14.00,2013-07-29 03:15:00,
2013-07-28 23:17:00,60.3,54.5,29.94,WSW,242,0.0,0.0,81,0.00,,---,0.43,VWS V14.00,2013-07-29 03:17:00,
2013-07-28 23:20:00,60.2,54.4,29.94,SW,228,0.0,0.0,81,0.00,,---,0.43,VWS V14.00,2013-07-29 03:20:00,
2013-07-28 23:22:00,60.2,54.4,29.94,SW,227,0.0,0.0,81,0.00,,---,0.43,VWS V14.00,2013-07-29 03:22:00,
2013-07-28 23:24:00,60.2,54.4,29.94,SW,227,0.0,0.0,81,0.00,,---,0.43,VWS V14.00,2013-07-29 03:24:00,
2013-07-28 23:25:00,60.2,54.4,29.94,SW,230,0.0,0.0,81,0.00,,---,0.43,VWS V14.00,2013-07-29 03:25:00,
2013-07-28 23:27:00,60.1,54.6,29.94,SW,230,0.0,0.0,82,0.00,,---,0.43,VWS V14.00,2013-07-29 03:27:00,
2013-07-28 23:29:00,60.1,54.6,29.94,SW,231,0.0,0.0,82,0.00,,---,0.43,VWS V14.00,2013-07-29 03:29:00,
2013-07-28 23:30:00,60.1,54.6,29.94,SW,231,0.0,0.0,82,0.00,,---,0.43,VWS V14.00,2013-07-29 03:30:00,
2013-07-28 23:33:00,60.1,54.6,29.94,SW,231,0.0,0.0,82,0.00,,---,0.43,VWS V14.00,2013-07-29 03:33:00,
2013-07-28 23:35:00,60.0,54.5,29.94,SW,231,0.0,0.0,82,0.00,,---,0.43,VWS V14.00,2013-07-29 03:35:00,
2013-07-28 23:36:00,60.0,54.5,29.94,SW,232,0.0,0.0,82,0.00,,---,0.43,VWS V14.00,2013-07-29 03:36:00,
2013-07-28 23:37:00,60.1,54.6,29.94,SW,232,0.0,0.0,82,0.00,,---,0.43,VWS V14.00,2013-07-29 03:37:00,
2013-07-28 23:39:00,60.0,54.5,29.94,SW,232,0.0,0.0,82,0.00,,---,0.43,VWS V14.00,2013-07-29 03:39:00,
2013-07-28 23:41:00,60.1,54.6,29.94,SW,232,0.0,0.0,82,0.00,,---,0.43,VWS V14.00,2013-07-29 03:41:00,
2013-07-28 23:42:00,60.1,54.6,29.94,SW,234,0.0,0.0,82,0.00,,---,0.43,VWS V14.00,2013-07-29 03:42:00,
2013-07-28 23:43:00,60.1,54.6,29.94,SW,233,0.0,0.0,82,0.00,,---,0.43,VWS V14.00,2013-07-29 03:43:00,
2013-07-28 23:47:00,60.1,54.6,29.94,SW,233,0.0,0.0,82,0.00,,---,0.43,VWS V14.00,2013-07-29 03:47:00,
2013-07-28 23:48:00,60.1,54.6,29.94,SW,233,0.0,0.0,82,0.00,,---,0.43,VWS V14.00,2013-07-29 03:48:00,
2013-07-28 23:49:00,60.1,54.6,29.94,SW,234,0.0,0.0,82,0.00,,---,0.43,VWS V14.00,2013-07-29 03:49:00,
2013-07-28 23:50:00,60.1,54.6,29.94,SW,234,0.0,0.0,82,0.00,,---,0.43,VWS V14.00,2013-07-29 03:50:00,
2013-07-28 23:53:00,60.1,54.6,29.94,SW,236,0.0,0.0,82,0.00,,---,0.43,VWS V14.00,2013-07-29 03:53:00,
2013-07-28 23:54:00,60.1,54.6,29.94,SW,236,0.0,0.0,82,0.00,,---,0.43,VWS V14.00,2013-07-29 03:54:00,
2013-07-28 23:56:00,60.0,54.5,29.94,SW,236,0.0,0.0,82,0.00,,---,0.43,VWS V14.00,2013-07-29 03:56:00,
2013-07-28 23:59:00,60.0,54.8,29.94,SW,233,0.0,0.0,83,0.00,,---,0.43,VWS V14.00,2013-07-29 03:59:00,